| time (UTC) | temp F | wind direction | speed MPH | gust MPH | rain 1hr in | rain 24hr in | rain mn in | humidity % | barometer mb |
| 20260506051403 | 56 | 156 | 2.0 | 5.0 | 0.08 | 0.73 | 0.36 | 96 | 1010.2 |
| 20260506051200 | 56 | 156 | 1.0 | 6.0 | 0.08 | 0.73 | 0.36 | 96 | 1010.2 |
| 20260506051102 | 56 | 156 | 3.0 | 6.0 | 0.08 | 0.73 | 0.36 | 96 | 1010.2 |
| 20260506051000 | 56 | 156 | 3.0 | 6.0 | 0.07 | 0.72 | 0.35 | 96 | 1010.3 |
| 20260506050900 | 56 | 156 | 2.0 | 6.0 | 0.07 | 0.72 | 0.35 | 96 | 1010.3 |
| 20260506050802 | 56 | 156 | 2.0 | 6.0 | 0.07 | 0.72 | 0.35 | 96 | 1010.3 |
| 20260506050700 | 56 | 157 | 3.0 | 6.0 | 0.07 | 0.72 | 0.35 | 96 | 1010.3 |
| 20260506050600 | 56 | 156 | 1.0 | 6.0 | 0.07 | 0.72 | 0.35 | 96 | 1010.3 |
| 20260506050504 | 56 | 146 | 3.0 | 6.0 | 0.07 | 0.72 | 0.35 | 96 | 1010.3 |
| 20260506050400 | 56 | 143 | 3.0 | 6.0 | 0.07 | 0.72 | 0.35 | 96 | 1010.3 |
| 20260506050300 | 56 | 142 | 4.0 | 6.0 | 0.07 | 0.72 | 0.35 | 95 | 1010.2 |
| 20260506050202 | 56 | 137 | 5.0 | 5.0 | 0.07 | 0.72 | 0.35 | 95 | 1010.2 |
| 20260506045100 | 56 | 224 | 4.0 | 4.0 | 0.06 | 0.71 | 0.33 | 95 | 1010.4 |
| 20260506045003 | 56 | 224 | 1.0 | 3.0 | 0.06 | 0.71 | 0.33 | 95 | 1010.4 |
| 20260506044859 | 56 | 224 | 1.0 | 6.0 | 0.06 | 0.71 | 0.33 | 95 | 1010.4 |
| 20260506044758 | 56 | 224 | 1.0 | 6.0 | 0.06 | 0.70 | 0.32 | 95 | 1010.4 |
| 20260506044602 | 56 | 224 | 0.0 | 6.0 | 0.06 | 0.70 | 0.32 | 95 | 1010.3 |
| 20260506044500 | 56 | 224 | 0.0 | 6.0 | 0.06 | 0.69 | 0.31 | 95 | 1010.3 |
| 20260506044300 | 56 | 224 | 0.0 | 6.0 | 0.06 | 0.69 | 0.31 | 95 | 1010.4 |
| 20260506044159 | 56 | 224 | 0.0 | 6.0 | 0.06 | 0.68 | 0.30 | 95 | 1010.4 |
| 20260506044103 | 56 | 224 | 1.0 | 6.0 | 0.06 | 0.68 | 0.30 | 95 | 1010.5 |
| 20260506044000 | 56 | 224 | 3.0 | 6.0 | 0.06 | 0.67 | 0.29 | 95 | 1010.5 |
| 20260506043900 | 56 | 224 | 5.0 | 6.0 | 0.06 | 0.67 | 0.29 | 95 | 1010.5 |
| 20260506043803 | 56 | 224 | 6.0 | 6.0 | 0.06 | 0.67 | 0.29 | 95 | 1010.5 |
| 20260506043600 | 56 | 231 | 3.0 | 4.0 | 0.07 | 0.67 | 0.29 | 95 | 1010.4 |
| 20260506043503 | 56 | 231 | 2.0 | 5.0 | 0.07 | 0.67 | 0.29 | 95 | 1010.4 |
| 20260506043400 | 56 | 231 | 1.0 | 5.0 | 0.08 | 0.67 | 0.29 | 95 | 1010.3 |
| 20260506043300 | 56 | 231 | 0.0 | 5.0 | 0.09 | 0.67 | 0.29 | 95 | 1010.3 |
| 20260506043202 | 56 | 231 | 1.0 | 5.0 | 0.09 | 0.67 | 0.29 | 95 | 1010.4 |
| 20260506043100 | 56 | 231 | 2.0 | 5.0 | 0.10 | 0.67 | 0.29 | 95 | 1010.5 |
| 20260506043001 | 56 | 231 | 2.0 | 5.0 | 0.11 | 0.67 | 0.29 | 95 | 1010.5 |
| 20260506042905 | 56 | 231 | 1.0 | 5.0 | 0.11 | 0.67 | 0.29 | 95 | 1010.5 |
| 20260506042801 | 56 | 231 | 2.0 | 5.0 | 0.13 | 0.67 | 0.29 | 95 | 1010.5 |
| 20260506042701 | 56 | 231 | 3.0 | 7.0 | 0.14 | 0.67 | 0.29 | 95 | 1010.5 |
| 20260506042500 | 56 | 231 | 4.0 | 7.0 | 0.19 | 0.67 | 0.29 | 95 | 1010.4 |
| 20260506042400 | 56 | 148 | 3.0 | 7.0 | 0.20 | 0.67 | 0.29 | 95 | 1010.5 |
| 20260506042305 | 55 | 84 | 0.0 | 7.0 | 0.20 | 0.67 | 0.29 | 95 | 1010.4 |
| 20260506042200 | 56 | 84 | 0.0 | 7.0 | 0.21 | 0.67 | 0.29 | 95 | 1010.4 |
| 20260506042100 | 56 | 84 | 1.0 | 7.0 | 0.22 | 0.67 | 0.29 | 95 | 1010.4 |
| 20260506042009 | 55 | 84 | 1.0 | 7.0 | 0.22 | 0.67 | 0.29 | 95 | 1010.4 |
| 20260506041900 | 55 | 84 | 2.0 | 7.0 | 0.22 | 0.67 | 0.29 | 95 | 1010.4 |
| 20260506041701 | 56 | 82 | 7.0 | 7.0 | 0.22 | 0.67 | 0.29 | 95 | 1010.3 |
| 20260506041602 | 55 | 80 | 7.0 | 7.0 | 0.22 | 0.67 | 0.29 | 95 | 1010.3 |
| 20260506041501 | 56 | 86 | 7.0 | 7.0 | 0.21 | 0.66 | 0.28 | 95 | 1010.3 |
| 20260506041403 | 56 | 80 | 6.0 | 6.0 | 0.21 | 0.66 | 0.28 | 95 | 1010.3 |
| 20260506041300 | 56 | 84 | 3.0 | 6.0 | 0.21 | 0.66 | 0.28 | 95 | 1010.4 |
| 20260506041201 | 56 | 284 | 1.0 | 9.0 | 0.21 | 0.66 | 0.28 | 95 | 1010.4 |
| 20260506041103 | 55 | 284 | 0.0 | 9.0 | 0.21 | 0.66 | 0.28 | 95 | 1010.4 |
| 20260506040803 | 55 | 284 | 4.0 | 10.0 | 0.21 | 0.66 | 0.28 | 95 | 1010.4 |
| 20260506040700 | 55 | 281 | 2.0 | 10.0 | 0.21 | 0.66 | 0.28 | 95 | 1010.4 |
| 20260506040600 | 55 | 264 | 4.0 | 10.0 | 0.21 | 0.66 | 0.28 | 95 | 1010.5 |
| 20260506040503 | 55 | 223 | 3.0 | 10.0 | 0.21 | 0.66 | 0.28 | 95 | 1010.7 |
| 20260506040404 | 55 | 223 | 6.0 | 10.0 | 0.21 | 0.66 | 0.28 | 95 | 1010.7 |
| 20260506040300 | 55 | 208 | 5.0 | 10.0 | 0.21 | 0.66 | 0.28 | 95 | 1010.8 |
| 20260506040202 | 55 | 194 | 7.0 | 10.0 | 0.21 | 0.66 | 0.28 | 95 | 1010.8 |
| 20260506040112 | 55 | 193 | 7.0 | 11.0 | 0.21 | 0.66 | 0.28 | 95 | 1010.7 |
| 20260506040005 | 56 | 178 | 7.0 | 11.0 | 0.21 | 0.66 | 0.28 | 95 | 1010.7 |
| 20260506035907 | 55 | 161 | 2.0 | 11.0 | 0.21 | 0.69 | 0.28 | 95 | 1010.7 |
| 20260506035800 | 56 | 138 | 4.0 | 11.0 | 0.21 | 0.69 | 0.28 | 95 | 1010.7 |
| 20260506035701 | 56 | 191 | 2.0 | 11.0 | 0.21 | 0.69 | 0.28 | 95 | 1010.7 |
| 20260506035603 | 56 | 191 | 3.0 | 11.0 | 0.21 | 0.69 | 0.28 | 95 | 1010.8 |
| 20260506035500 | 56 | 191 | 2.0 | 11.0 | 0.20 | 0.68 | 0.28 | 95 | 1010.9 |
| 20260506035400 | 56 | 236 | 4.0 | 11.0 | 0.20 | 0.68 | 0.28 | 95 | 1010.9 |
| 20260506035306 | 56 | 207 | 5.0 | 12.0 | 0.20 | 0.68 | 0.28 | 94 | 1010.9 |
| 20260506035200 | 56 | 215 | 9.0 | 12.0 | 0.20 | 0.68 | 0.28 | 95 | 1011.0 |
| 20260506035005 | 56 | 234 | 10.0 | 12.0 | 0.20 | 0.67 | 0.27 | 94 | 1010.9 |
| 20260506034900 | 56 | 247 | 8.0 | 12.0 | 0.20 | 0.67 | 0.27 | 94 | 1010.8 |
| 20260506034702 | 56 | 233 | 8.0 | 12.0 | 0.19 | 0.66 | 0.26 | 94 | 1010.8 |
| 20260506034600 | 56 | 227 | 7.0 | 12.0 | 0.19 | 0.66 | 0.26 | 94 | 1010.8 |
| 20260506034500 | 56 | 203 | 8.0 | 12.0 | 0.18 | 0.65 | 0.25 | 94 | 1010.8 |
| 20260506034200 | 56 | 209 | 7.0 | 11.0 | 0.17 | 0.65 | 0.24 | 94 | 1010.9 |
| 20260506034104 | 56 | 225 | 8.0 | 14.0 | 0.17 | 0.64 | 0.24 | 94 | 1010.8 |
| 20260506034003 | 56 | 221 | 9.0 | 14.0 | 0.17 | 0.64 | 0.24 | 94 | 1010.7 |
| 20260506033900 | 56 | 227 | 8.0 | 14.0 | 0.16 | 0.63 | 0.23 | 94 | 1010.8 |
| 20260506033802 | 56 | 240 | 7.0 | 14.0 | 0.16 | 0.63 | 0.23 | 94 | 1010.8 |
| 20260506033700 | 57 | 252 | 3.0 | 14.0 | 0.16 | 0.63 | 0.23 | 94 | 1010.8 |
| 20260506033600 | 57 | 233 | 5.0 | 14.0 | 0.15 | 0.62 | 0.22 | 94 | 1010.8 |
| 20260506033503 | 57 | 257 | 6.0 | 14.0 | 0.15 | 0.62 | 0.22 | 94 | 1010.8 |
| 20260506033358 | 57 | 237 | 3.0 | 14.0 | 0.14 | 0.61 | 0.21 | 94 | 1010.9 |
| 20260506033308 | 57 | 235 | 6.0 | 14.0 | 0.13 | 0.61 | 0.20 | 94 | 1010.9 |
| 20260506033206 | 57 | 240 | 9.0 | 14.0 | 0.13 | 0.60 | 0.20 | 94 | 1010.9 |
| 20260506033059 | 57 | 228 | 6.0 | 12.0 | 0.12 | 0.59 | 0.19 | 94 | 1010.8 |
| 20260506032903 | 57 | 267 | 4.0 | 12.0 | 0.11 | 0.58 | 0.18 | 94 | 1010.5 |
| 20260506032759 | 57 | 284 | 3.0 | 12.0 | 0.09 | 0.57 | 0.17 | 94 | 1010.4 |
| 20260506032700 | 58 | 276 | 5.0 | 12.0 | 0.08 | 0.55 | 0.15 | 94 | 1010.3 |
| 20260506032607 | 58 | 309 | 5.0 | 12.0 | 0.06 | 0.53 | 0.13 | 94 | 1010.3 |
| 20260506032500 | 58 | 296 | 5.0 | 12.0 | 0.03 | 0.50 | 0.10 | 95 | 1010.3 |
| 20260506032359 | 58 | 287 | 8.0 | 12.0 | 0.02 | 0.50 | 0.09 | 95 | 1010.4 |
| 20260506032305 | 58 | 287 | 7.0 | 12.0 | 0.02 | 0.50 | 0.09 | 95 | 1010.6 |
| 20260506032200 | 58 | 281 | 5.0 | 12.0 | 0.01 | 0.48 | 0.08 | 95 | 1010.7 |
| 20260506032100 | 58 | 271 | 5.0 | 10.0 | 0.00 | 0.47 | 0.07 | 95 | 1010.7 |
| 20260506031800 | 58 | 260 | 7.0 | 8.0 | 0.01 | 0.47 | 0.07 | 95 | 1010.4 |
| 20260506031702 | 58 | 248 | 4.0 | 5.0 | 0.01 | 0.47 | 0.07 | 95 | 1010.3 |
| 20260506031459 | 58 | 263 | 3.0 | 4.0 | 0.01 | 0.47 | 0.07 | 95 | 1010.0 |
| 20260506031403 | 58 | 290 | 2.0 | 4.0 | 0.02 | 0.47 | 0.07 | 95 | 1009.9 |
| 20260506031300 | 58 | 123 | 3.0 | 6.0 | 0.02 | 0.47 | 0.07 | 95 | 1009.9 |
| 20260506031200 | 58 | 123 | 1.0 | 6.0 | 0.02 | 0.47 | 0.07 | 95 | 1009.8 |
| 20260506031103 | 58 | 123 | 0.0 | 6.0 | 0.02 | 0.47 | 0.07 | 95 | 1009.7 |
| 20260506031000 | 58 | 123 | 0.0 | 6.0 | 0.02 | 0.47 | 0.07 | 95 | 1009.7 |
| 20260506030859 | 58 | 123 | 1.0 | 6.0 | 0.02 | 0.47 | 0.07 | 95 | 1009.7 |
| 20260506030802 | 58 | 123 | 1.0 | 6.0 | 0.02 | 0.47 | 0.07 | 95 | 1009.7 |
| 20260506030700 | 58 | 123 | 1.0 | 6.0 | 0.02 | 0.47 | 0.07 | 95 | 1009.6 |
| 20260506030559 | 58 | 123 | 3.0 | 6.0 | 0.02 | 0.47 | 0.07 | 95 | 1009.6 |
| 20260506030503 | 58 | 99 | 2.0 | 6.0 | 0.02 | 0.47 | 0.07 | 95 | 1009.6 |
| 20260506030400 | 58 | 99 | 1.0 | 6.0 | 0.02 | 0.47 | 0.07 | 95 | 1009.6 |
| 20260506030301 | 58 | 99 | 6.0 | 6.0 | 0.02 | 0.47 | 0.07 | 95 | 1009.6 |
| 20260506030203 | 58 | 98 | 5.0 | 5.0 | 0.02 | 0.47 | 0.07 | 95 | 1009.6 |
| 20260506030100 | 58 | 101 | 3.0 | 4.0 | 0.02 | 0.47 | 0.07 | 95 | 1009.6 |
| 20260506025700 | 58 | 77 | 3.0 | 4.0 | 0.02 | 0.47 | 0.07 | 95 | 1009.5 |
| 20260506025601 | 58 | 72 | 4.0 | 4.0 | 0.02 | 0.47 | 0.07 | 95 | 1009.6 |
| 20260506025500 | 58 | 201 | 2.0 | 4.0 | 0.02 | 0.47 | 0.07 | 95 | 1009.6 |
| 20260506025400 | 58 | 201 | 3.0 | 4.0 | 0.02 | 0.47 | 0.07 | 95 | 1009.6 |
| 20260506025209 | 58 | 201 | 2.0 | 4.0 | 0.02 | 0.47 | 0.07 | 95 | 1009.7 |
| 20260506025004 | 58 | 201 | 2.0 | 4.0 | 0.02 | 0.47 | 0.07 | 95 | 1009.8 |
| 20260506024859 | 58 | 201 | 3.0 | 4.0 | 0.02 | 0.47 | 0.07 | 95 | 1009.7 |
| 20260506024702 | 58 | 201 | 3.0 | 4.0 | 0.02 | 0.47 | 0.07 | 95 | 1009.8 |
| 20260506024600 | 58 | 201 | 3.0 | 3.0 | 0.02 | 0.47 | 0.07 | 95 | 1009.8 |
| 20260506024500 | 58 | 201 | 2.0 | 4.0 | 0.02 | 0.47 | 0.07 | 95 | 1009.8 |
| 20260506024407 | 58 | 201 | 2.0 | 4.0 | 0.02 | 0.47 | 0.07 | 94 | 1009.8 |
| 20260506024300 | 58 | 201 | 3.0 | 4.0 | 0.02 | 0.47 | 0.07 | 95 | 1009.8 |
| 20260506024159 | 58 | 201 | 2.0 | 4.0 | 0.02 | 0.47 | 0.07 | 94 | 1009.9 |
| 20260506024102 | 58 | 201 | 2.0 | 4.0 | 0.02 | 0.47 | 0.07 | 94 | 1009.9 |
| 20260506024001 | 58 | 201 | 1.0 | 4.0 | 0.02 | 0.47 | 0.07 | 94 | 1009.9 |
| 20260506023859 | 58 | 201 | 1.0 | 4.0 | 0.02 | 0.47 | 0.07 | 94 | 1009.9 |
| 20260506023659 | 58 | 201 | 2.0 | 4.0 | 0.02 | 0.47 | 0.07 | 94 | 1009.9 |
| 20260506023558 | 58 | 201 | 2.0 | 4.0 | 0.02 | 0.47 | 0.07 | 94 | 1009.9 |
| 20260506023502 | 58 | 201 | 4.0 | 4.0 | 0.02 | 0.47 | 0.07 | 94 | 1009.9 |
| 20260506023300 | 58 | 201 | 2.0 | 4.0 | 0.02 | 0.47 | 0.07 | 94 | 1010.0 |
| 20260506023203 | 58 | 201 | 3.0 | 4.0 | 0.02 | 0.47 | 0.07 | 94 | 1010.0 |
| 20260506023100 | 58 | 201 | 3.0 | 4.0 | 0.02 | 0.47 | 0.07 | 94 | 1010.0 |
| 20260506023000 | 58 | 201 | 3.0 | 4.0 | 0.02 | 0.47 | 0.07 | 94 | 1010.0 |
| 20260506022904 | 58 | 201 | 3.0 | 4.0 | 0.02 | 0.47 | 0.07 | 94 | 1010.0 |
| 20260506022800 | 58 | 201 | 2.0 | 4.0 | 0.02 | 0.47 | 0.07 | 94 | 1010.1 |
| 20260506022659 | 58 | 201 | 0.0 | 5.0 | 0.02 | 0.47 | 0.07 | 94 | 1010.2 |
| 20260506022602 | 58 | 201 | 0.0 | 5.0 | 0.02 | 0.47 | 0.07 | 94 | 1010.1 |
| 20260506022500 | 58 | 201 | 0.0 | 6.0 | 0.02 | 0.47 | 0.07 | 94 | 1010.2 |
| 20260506022400 | 58 | 201 | 1.0 | 7.0 | 0.02 | 0.47 | 0.07 | 94 | 1010.2 |
| 20260506022306 | 58 | 201 | 1.0 | 7.0 | 0.02 | 0.47 | 0.07 | 94 | 1010.2 |
| 20260506022200 | 58 | 201 | 0.0 | 7.0 | 0.02 | 0.47 | 0.07 | 94 | 1010.3 |
| 20260506022059 | 58 | 201 | 3.0 | 8.0 | 0.02 | 0.47 | 0.07 | 94 | 1010.3 |
| 20260506022006 | 58 | 201 | 2.0 | 8.0 | 0.02 | 0.47 | 0.07 | 94 | 1010.3 |
| 20260506021801 | 58 | 201 | 4.0 | 8.0 | 0.01 | 0.46 | 0.06 | 94 | 1010.5 |
| 20260506021602 | 58 | 231 | 3.0 | 8.0 | 0.01 | 0.46 | 0.06 | 95 | 1010.5 |
| 20260506021501 | 58 | 252 | 5.0 | 8.0 | 0.01 | 0.46 | 0.06 | 95 | 1010.5 |
| 20260506021404 | 58 | 253 | 4.0 | 8.0 | 0.00 | 0.46 | 0.06 | 95 | 1010.5 |
| 20260506021300 | 58 | 234 | 5.0 | 9.0 | 0.00 | 0.46 | 0.06 | 95 | 1010.6 |
| 20260506021200 | 58 | 246 | 7.0 | 9.0 | 0.00 | 0.46 | 0.06 | 95 | 1010.6 |
| 20260506021103 | 58 | 237 | 6.0 | 9.0 | 0.01 | 0.46 | 0.06 | 95 | 1010.5 |
| 20260506020901 | 58 | 277 | 3.0 | 9.0 | 0.01 | 0.46 | 0.06 | 95 | 1010.4 |
| 20260506020804 | 58 | 284 | 3.0 | 9.0 | 0.01 | 0.46 | 0.06 | 95 | 1010.4 |
| 20260506020503 | 58 | 256 | 3.0 | 9.0 | 0.01 | 0.46 | 0.06 | 94 | 1010.5 |
| 20260506020400 | 59 | 261 | 6.0 | 9.0 | 0.01 | 0.46 | 0.06 | 94 | 1010.7 |
| 20260506020204 | 59 | 315 | 8.0 | 9.0 | 0.01 | 0.46 | 0.06 | 95 | 1010.8 |
| 20260506020115 | 59 | 280 | 4.0 | 9.0 | 0.01 | 0.46 | 0.06 | 95 | 1010.8 |
| 20260506020005 | 59 | 286 | 5.0 | 9.0 | 0.01 | 0.46 | 0.06 | 95 | 1011.0 |
| 20260506015902 | 59 | 261 | 8.0 | 8.0 | 0.01 | 0.46 | 0.06 | 95 | 1011.0 |
| 20260506015759 | 59 | 246 | 7.0 | 8.0 | 0.01 | 0.46 | 0.06 | 95 | 1011.0 |
| 20260506015500 | 59 | 285 | 6.0 | 8.0 | 0.01 | 0.46 | 0.06 | 95 | 1010.9 |
| 20260506015400 | 59 | 287 | 8.0 | 8.0 | 0.01 | 0.46 | 0.06 | 95 | 1010.8 |
| 20260506015305 | 59 | 261 | 8.0 | 8.0 | 0.01 | 0.46 | 0.06 | 95 | 1010.7 |
| 20260506015200 | 59 | 279 | 4.0 | 7.0 | 0.01 | 0.46 | 0.06 | 95 | 1010.6 |
| 20260506015059 | 59 | 273 | 4.0 | 6.0 | 0.01 | 0.46 | 0.06 | 95 | 1010.5 |
| 20260506015004 | 59 | 281 | 4.0 | 6.0 | 0.01 | 0.46 | 0.06 | 95 | 1010.5 |
| 20260506014759 | 59 | 317 | 3.0 | 6.0 | 0.01 | 0.46 | 0.06 | 95 | 1010.4 |
| 20260506014703 | 59 | 317 | 3.0 | 6.0 | 0.01 | 0.46 | 0.06 | 95 | 1010.4 |
| 20260506014559 | 59 | 317 | 3.0 | 6.0 | 0.01 | 0.46 | 0.06 | 95 | 1010.4 |
| 20260506014502 | 59 | 317 | 3.0 | 6.0 | 0.01 | 0.46 | 0.06 | 95 | 1010.4 |
| 20260506014202 | 59 | 317 | 3.0 | 6.0 | 0.01 | 0.46 | 0.06 | 94 | 1010.4 |
| 20260506014102 | 59 | 317 | 2.0 | 6.0 | 0.01 | 0.46 | 0.06 | 94 | 1010.4 |
| 20260506014005 | 59 | 324 | 4.0 | 5.0 | 0.01 | 0.46 | 0.06 | 95 | 1010.4 |
| 20260506013900 | 59 | 323 | 3.0 | 5.0 | 0.01 | 0.46 | 0.06 | 95 | 1010.3 |
| 20260506013804 | 59 | 324 | 4.0 | 5.0 | 0.01 | 0.46 | 0.06 | 95 | 1010.3 |
| 20260506013700 | 59 | 328 | 4.0 | 4.0 | 0.02 | 0.46 | 0.06 | 95 | 1010.2 |
| 20260506013559 | 59 | 316 | 3.0 | 4.0 | 0.02 | 0.46 | 0.06 | 95 | 1010.2 |
| 20260506013506 | 59 | 316 | 3.0 | 4.0 | 0.02 | 0.46 | 0.06 | 95 | 1010.2 |
| 20260506013359 | 59 | 316 | 2.0 | 4.0 | 0.03 | 0.46 | 0.06 | 95 | 1010.3 |
| 20260506013300 | 59 | 316 | 3.0 | 4.0 | 0.03 | 0.46 | 0.06 | 95 | 1010.4 |
| 20260506013203 | 59 | 355 | 3.0 | 4.0 | 0.03 | 0.46 | 0.06 | 95 | 1010.4 |
| 20260506013101 | 59 | 355 | 2.0 | 3.0 | 0.03 | 0.46 | 0.06 | 95 | 1010.5 |
| 20260506013000 | 59 | 355 | 2.0 | 3.0 | 0.03 | 0.46 | 0.06 | 95 | 1010.5 |
| 20260506012902 | 59 | 355 | 3.0 | 3.0 | 0.03 | 0.46 | 0.06 | 95 | 1010.5 |
| 20260506012800 | 59 | 355 | 3.0 | 3.0 | 0.04 | 0.46 | 0.06 | 95 | 1010.5 |
| 20260506012700 | 59 | 355 | 1.0 | 2.0 | 0.05 | 0.46 | 0.06 | 95 | 1010.5 |
| 20260506012606 | 59 | 355 | 2.0 | 2.0 | 0.05 | 0.46 | 0.06 | 95 | 1010.5 |
| 20260506012459 | 59 | 355 | 2.0 | 2.0 | 0.05 | 0.46 | 0.06 | 94 | 1010.5 |
| 20260506012400 | 59 | 355 | 2.0 | 2.0 | 0.05 | 0.46 | 0.06 | 95 | 1010.4 |
| 20260506012307 | 59 | 355 | 2.0 | 2.0 | 0.05 | 0.46 | 0.06 | 94 | 1010.4 |
| 20260506012159 | 59 | 355 | 1.0 | 2.0 | 0.05 | 0.46 | 0.06 | 95 | 1010.4 |
| 20260506012058 | 59 | 355 | 1.0 | 2.0 | 0.05 | 0.46 | 0.06 | 94 | 1010.4 |
| 20260506011900 | 59 | 355 | 2.0 | 2.0 | 0.05 | 0.46 | 0.06 | 94 | 1010.3 |
| 20260506011759 | 59 | 355 | 1.0 | 2.0 | 0.05 | 0.46 | 0.06 | 94 | 1010.3 |
| 20260506011702 | 59 | 355 | 0.0 | 3.0 | 0.05 | 0.46 | 0.06 | 95 | 1010.4 |
| 20260506011600 | 59 | 355 | 0.0 | 3.0 | 0.05 | 0.46 | 0.06 | 95 | 1010.4 |
| 20260506011500 | 59 | 355 | 0.0 | 3.0 | 0.05 | 0.46 | 0.06 | 95 | 1010.5 |
| 20260506011200 | 59 | 355 | 1.0 | 3.0 | 0.05 | 0.46 | 0.06 | 94 | 1010.5 |
| 20260506011102 | 59 | 355 | 0.0 | 3.0 | 0.04 | 0.45 | 0.05 | 94 | 1010.5 |
| 20260506011001 | 59 | 355 | 0.0 | 3.0 | 0.04 | 0.45 | 0.05 | 94 | 1010.5 |
| 20260506010859 | 59 | 355 | 1.0 | 3.0 | 0.04 | 0.45 | 0.05 | 94 | 1010.6 |
| 20260506010802 | 59 | 355 | 2.0 | 3.0 | 0.04 | 0.45 | 0.05 | 94 | 1010.5 |
| 20260506010701 | 59 | 355 | 2.0 | 3.0 | 0.04 | 0.45 | 0.05 | 94 | 1010.5 |
| 20260506010600 | 59 | 355 | 1.0 | 2.0 | 0.04 | 0.45 | 0.05 | 94 | 1010.5 |
| 20260506010505 | 59 | 355 | 1.0 | 2.0 | 0.04 | 0.45 | 0.05 | 94 | 1010.5 |
| 20260506010400 | 59 | 355 | 1.0 | 2.0 | 0.04 | 0.45 | 0.05 | 94 | 1010.4 |
| 20260506010203 | 59 | 355 | 1.0 | 2.0 | 0.04 | 0.45 | 0.05 | 94 | 1010.5 |
| 20260506005800 | 59 | 355 | 0.0 | 4.0 | 0.04 | 0.45 | 0.05 | 94 | 1010.5 |
| 20260506005659 | 59 | 355 | 1.0 | 4.0 | 0.04 | 0.45 | 0.05 | 94 | 1010.5 |
| 20260506005602 | 59 | 355 | 1.0 | 4.0 | 0.04 | 0.45 | 0.05 | 94 | 1010.5 |
| 20260506005500 | 59 | 355 | 1.0 | 4.0 | 0.04 | 0.45 | 0.05 | 94 | 1010.5 |
| 20260506005400 | 59 | 355 | 1.0 | 4.0 | 0.04 | 0.45 | 0.05 | 94 | 1010.5 |
| 20260506005305 | 59 | 355 | 2.0 | 4.0 | 0.04 | 0.45 | 0.05 | 94 | 1010.6 |
| 20260506005159 | 59 | 355 | 2.0 | 5.0 | 0.04 | 0.45 | 0.05 | 94 | 1010.6 |
| 20260506005003 | 59 | 341 | 4.0 | 5.0 | 0.04 | 0.45 | 0.05 | 94 | 1010.6 |
| 20260506004900 | 59 | 341 | 3.0 | 5.0 | 0.04 | 0.45 | 0.05 | 94 | 1010.6 |
| 20260506004702 | 59 | 341 | 2.0 | 5.0 | 0.04 | 0.45 | 0.05 | 94 | 1010.6 |
| 20260506004600 | 59 | 341 | 1.0 | 5.0 | 0.04 | 0.45 | 0.05 | 94 | 1010.6 |
| 20260506004500 | 59 | 341 | 2.0 | 5.0 | 0.04 | 0.45 | 0.05 | 94 | 1010.6 |
| 20260506004402 | 59 | 341 | 1.0 | 5.0 | 0.04 | 0.45 | 0.05 | 94 | 1010.6 |
| 20260506004259 | 59 | 341 | 3.0 | 5.0 | 0.04 | 0.45 | 0.05 | 94 | 1010.7 |
| 20260506004200 | 59 | 267 | 2.0 | 3.0 | 0.04 | 0.45 | 0.05 | 94 | 1010.7 |
| 20260506004102 | 59 | 267 | 0.0 | 3.0 | 0.04 | 0.45 | 0.05 | 94 | 1010.7 |
| 20260506004001 | 59 | 267 | 1.0 | 4.0 | 0.04 | 0.45 | 0.05 | 94 | 1010.7 |
| 20260506003859 | 59 | 267 | 2.0 | 4.0 | 0.04 | 0.45 | 0.05 | 94 | 1010.7 |
| 20260506003803 | 59 | 267 | 2.0 | 4.0 | 0.04 | 0.45 | 0.05 | 94 | 1010.8 |
| 20260506003658 | 59 | 267 | 1.0 | 4.0 | 0.03 | 0.44 | 0.04 | 94 | 1010.9 |
| 20260506003502 | 59 | 267 | 0.0 | 4.0 | 0.02 | 0.43 | 0.03 | 94 | 1011.0 |
| 20260506003401 | 59 | 267 | 3.0 | 4.0 | 0.02 | 0.43 | 0.02 | 94 | 1010.9 |
| 20260506003259 | 59 | 267 | 3.0 | 4.0 | 0.02 | 0.43 | 0.02 | 94 | 1010.9 |
| 20260506003202 | 59 | 267 | 3.0 | 4.0 | 0.02 | 0.43 | 0.02 | 94 | 1010.9 |
| 20260506003000 | 59 | 267 | 3.0 | 4.0 | 0.02 | 0.43 | 0.02 | 94 | 1010.9 |
| 20260506002800 | 59 | 267 | 2.0 | 3.0 | 0.01 | 0.42 | 0.02 | 94 | 1010.9 |
| 20260506002602 | 59 | 267 | 2.0 | 3.0 | 0.00 | 0.41 | 0.01 | 94 | 1010.9 |
| 20260506002500 | 59 | 267 | 3.0 | 3.0 | 0.00 | 0.41 | 0.01 | 94 | 1010.9 |
| 20260506002401 | 59 | 267 | 2.0 | 3.0 | 0.00 | 0.41 | 0.01 | 94 | 1010.9 |
| 20260506002306 | 59 | 267 | 3.0 | 3.0 | 0.00 | 0.41 | 0.01 | 94 | 1010.9 |
| 20260506002159 | 59 | 267 | 2.0 | 3.0 | 0.00 | 0.41 | 0.01 | 94 | 1010.9 |
| 20260506002059 | 59 | 267 | 1.0 | 3.0 | 0.00 | 0.41 | 0.01 | 94 | 1010.9 |
| 20260506002003 | 59 | 267 | 1.0 | 3.0 | 0.00 | 0.41 | 0.01 | 94 | 1010.8 |
| 20260506001859 | 59 | 267 | 1.0 | 3.0 | 0.00 | 0.41 | 0.01 | 94 | 1010.9 |
| 20260506001702 | 59 | 267 | 2.0 | 4.0 | 0.00 | 0.41 | 0.01 | 94 | 1010.9 |
| 20260506001559 | 59 | 267 | 0.0 | 4.0 | 0.00 | 0.41 | 0.01 | 94 | 1010.9 |
| 20260506001402 | 59 | 267 | 2.0 | 4.0 | 0.00 | 0.41 | 0.01 | 94 | 1011.0 |
| 20260506001300 | 59 | 267 | 0.0 | 4.0 | 0.00 | 0.41 | 0.01 | 94 | 1010.9 |
| 20260506001159 | 59 | 267 | 1.0 | 4.0 | 0.00 | 0.41 | 0.01 | 94 | 1011.0 |
| 20260506001102 | 59 | 267 | 1.0 | 4.0 | 0.00 | 0.41 | 0.01 | 94 | 1011.0 |
| 20260506001000 | 59 | 267 | 2.0 | 4.0 | 0.00 | 0.41 | 0.01 | 94 | 1010.9 |
| 20260506000900 | 59 | 267 | 2.0 | 4.0 | 0.00 | 0.41 | 0.01 | 94 | 1011.0 |
| 20260506000700 | 59 | 277 | 2.0 | 4.0 | 0.00 | 0.41 | 0.01 | 94 | 1010.9 |
| 20260506000600 | 59 | 277 | 2.0 | 4.0 | 0.00 | 0.41 | 0.01 | 94 | 1010.9 |
| 20260506000401 | 59 | 277 | 2.0 | 4.0 | 0.00 | 0.41 | 0.01 | 94 | 1010.9 |
| 20260506000302 | 59 | 126 | 2.0 | 3.0 | 0.00 | 0.41 | 0.01 | 94 | 1010.9 |
| 20260506000204 | 59 | 126 | 2.0 | 4.0 | 0.00 | 0.41 | 0.01 | 94 | 1010.9 |
| 20260506000113 | 58 | 126 | 2.0 | 4.0 | 0.00 | 0.41 | 0.01 | 94 | 1010.9 |
| 20260506000005 | 58 | 126 | 2.0 | 4.0 | 0.00 | 0.41 | 0.01 | 94 | 1010.9 |
| 20260505235902 | 58 | 126 | 1.0 | 4.0 | 0.00 | 0.41 | 0.01 | 94 | 1010.9 |
| 20260505235759 | 58 | 126 | 2.0 | 4.0 | 0.00 | 0.41 | 0.01 | 94 | 1010.9 |
| 20260505235659 | 58 | 126 | 1.0 | 4.0 | 0.00 | 0.41 | 0.01 | 93 | 1010.9 |
| 20260505235603 | 58 | 126 | 1.0 | 4.0 | 0.00 | 0.41 | 0.01 | 93 | 1010.9 |
| 20260505235500 | 58 | 126 | 0.0 | 4.0 | 0.00 | 0.41 | 0.01 | 93 | 1010.9 |
| 20260505235400 | 58 | 126 | 0.0 | 4.0 | 0.00 | 0.41 | 0.01 | 93 | 1010.9 |
| 20260505235305 | 58 | 126 | 1.0 | 4.0 | 0.00 | 0.41 | 0.01 | 93 | 1010.9 |
| 20260505235200 | 58 | 126 | 3.0 | 5.0 | 0.00 | 0.41 | 0.01 | 93 | 1010.9 |
| 20260505235100 | 58 | 126 | 3.0 | 5.0 | 0.00 | 0.41 | 0.01 | 93 | 1010.8 |
| 20260505235003 | 58 | 126 | 3.0 | 5.0 | 0.00 | 0.41 | 0.01 | 93 | 1010.8 |
| 20260505234759 | 58 | 126 | 0.0 | 5.0 | 0.00 | 0.41 | 0.01 | 93 | 1010.7 |
| 20260505234702 | 58 | 126 | 0.0 | 5.0 | 0.00 | 0.41 | 0.01 | 93 | 1010.7 |
| 20260505234500 | 58 | 126 | 1.0 | 5.0 | 0.00 | 0.41 | 0.01 | 93 | 1010.7 |
| 20260505234402 | 58 | 126 | 4.0 | 5.0 | 0.00 | 0.41 | 0.01 | 93 | 1010.8 |
| 20260505234300 | 58 | 126 | 3.0 | 5.0 | 0.00 | 0.41 | 0.01 | 93 | 1010.9 |
| 20260505234159 | 58 | 126 | 4.0 | 4.0 | 0.00 | 0.41 | 0.01 | 93 | 1010.9 |
| 20260505234102 | 58 | 126 | 3.0 | 4.0 | 0.00 | 0.41 | 0.01 | 93 | 1010.9 |
| 20260505233900 | 58 | 126 | 4.0 | 4.0 | 0.00 | 0.41 | 0.01 | 93 | 1011.0 |
| 20260505233802 | 58 | 126 | 3.0 | 4.0 | 0.00 | 0.41 | 0.01 | 93 | 1011.0 |
| 20260505233659 | 58 | 126 | 3.0 | 4.0 | 0.00 | 0.41 | 0.01 | 93 | 1011.0 |
| 20260505233559 | 58 | 126 | 3.0 | 4.0 | 0.00 | 0.41 | 0.01 | 93 | 1011.0 |
| 20260505233503 | 58 | 126 | 3.0 | 4.0 | 0.00 | 0.41 | 0.01 | 93 | 1011.0 |
| 20260505233300 | 59 | 126 | 3.0 | 4.0 | 0.00 | 0.41 | 0.01 | 93 | 1011.0 |
| 20260505233202 | 59 | 126 | 3.0 | 4.0 | 0.00 | 0.41 | 0.01 | 93 | 1010.9 |
| 20260505233100 | 59 | 126 | 4.0 | 6.0 | 0.00 | 0.41 | 0.01 | 93 | 1010.9 |
| 20260505233000 | 59 | 126 | 3.0 | 6.0 | 0.00 | 0.41 | 0.01 | 93 | 1010.9 |
| 20260505232902 | 59 | 126 | 1.0 | 6.0 | 0.00 | 0.41 | 0.01 | 93 | 1010.9 |
| 20260505232759 | 59 | 126 | 1.0 | 6.0 | 0.00 | 0.41 | 0.01 | 93 | 1010.9 |
| 20260505232700 | 59 | 126 | 2.0 | 6.0 | 0.00 | 0.41 | 0.01 | 93 | 1010.9 |
| 20260505232603 | 59 | 126 | 3.0 | 6.0 | 0.00 | 0.41 | 0.01 | 93 | 1010.9 |
| 20260505232500 | 59 | 126 | 2.0 | 6.0 | 0.00 | 0.41 | 0.01 | 93 | 1010.9 |
| 20260505232359 | 59 | 126 | 1.0 | 6.0 | 0.00 | 0.41 | 0.01 | 93 | 1010.9 |
| 20260505232305 | 59 | 126 | 1.0 | 6.0 | 0.00 | 0.41 | 0.01 | 93 | 1010.9 |
| 20260505232159 | 59 | 126 | 4.0 | 6.0 | 0.00 | 0.41 | 0.01 | 93 | 1011.0 |
| 20260505232100 | 59 | 126 | 4.0 | 5.0 | 0.00 | 0.41 | 0.01 | 93 | 1011.0 |
| 20260505232003 | 59 | 126 | 4.0 | 4.0 | 0.00 | 0.41 | 0.01 | 93 | 1011.0 |
| 20260505231859 | 59 | 126 | 4.0 | 4.0 | 0.00 | 0.41 | 0.01 | 92 | 1011.0 |
| 20260505231759 | 59 | 126 | 3.0 | 4.0 | 0.00 | 0.41 | 0.01 | 92 | 1011.0 |
| 20260505231702 | 59 | 126 | 2.0 | 3.0 | 0.00 | 0.41 | 0.01 | 92 | 1011.0 |
| 20260505231500 | 59 | 126 | 2.0 | 2.0 | 0.00 | 0.41 | 0.01 | 93 | 1011.0 |
| 20260505231403 | 59 | 126 | 1.0 | 2.0 | 0.00 | 0.41 | 0.01 | 92 | 1011.0 |
| 20260505231300 | 59 | 126 | 2.0 | 2.0 | 0.00 | 0.41 | 0.01 | 92 | 1011.0 |
| 20260505231159 | 59 | 126 | 1.0 | 2.0 | 0.00 | 0.41 | 0.01 | 92 | 1011.0 |
| 20260505231102 | 59 | 126 | 0.0 | 1.0 | 0.01 | 0.41 | 0.01 | 92 | 1011.0 |
| 20260505231000 | 59 | 126 | 0.0 | 1.0 | 0.01 | 0.41 | 0.01 | 93 | 1010.9 |
| 20260505230802 | 59 | 126 | 1.0 | 1.0 | 0.01 | 0.41 | 0.01 | 92 | 1010.9 |
| 20260505230700 | 59 | 126 | 1.0 | 1.0 | 0.01 | 0.41 | 0.01 | 92 | 1010.9 |
| 20260505230600 | 59 | 126 | 1.0 | 1.0 | 0.01 | 0.41 | 0.01 | 92 | 1010.9 |
| 20260505230503 | 59 | 126 | 1.0 | 2.0 | 0.01 | 0.41 | 0.01 | 92 | 1010.9 |
| 20260505230359 | 59 | 126 | 1.0 | 2.0 | 0.01 | 0.41 | 0.01 | 92 | 1010.9 |
| 20260505230259 | 59 | 126 | 0.0 | 2.0 | 0.01 | 0.41 | 0.01 | 92 | 1011.0 |
| 20260505230059 | 59 | 126 | 1.0 | 2.0 | 0.01 | 0.41 | 0.01 | 92 | 1010.9 |
| 20260505230005 | 59 | 126 | 0.0 | 2.0 | 0.01 | 0.41 | 0.01 | 92 | 1011.0 |
| 20260505225903 | 59 | 126 | 1.0 | 2.0 | 0.01 | 0.41 | 0.01 | 92 | 1011.0 |
| 20260505225759 | 59 | 126 | 1.0 | 2.0 | 0.01 | 0.41 | 0.01 | 92 | 1011.0 |
| 20260505225700 | 59 | 126 | 0.0 | 2.0 | 0.01 | 0.41 | 0.01 | 92 | 1011.0 |
| 20260505225602 | 59 | 126 | 1.0 | 2.0 | 0.01 | 0.41 | 0.01 | 92 | 1011.0 |
| 20260505225459 | 59 | 126 | 2.0 | 4.0 | 0.01 | 0.41 | 0.01 | 92 | 1011.0 |
| 20260505225305 | 59 | 126 | 2.0 | 4.0 | 0.01 | 0.41 | 0.01 | 92 | 1011.1 |
| 20260505225158 | 59 | 126 | 0.0 | 4.0 | 0.01 | 0.41 | 0.01 | 92 | 1011.1 |
| 20260505225004 | 59 | 126 | 1.0 | 4.0 | 0.01 | 0.41 | 0.01 | 92 | 1011.1 |
| 20260505224859 | 59 | 126 | 2.0 | 4.0 | 0.01 | 0.41 | 0.01 | 92 | 1011.2 |
| 20260505224703 | 59 | 126 | 1.0 | 5.0 | 0.01 | 0.41 | 0.01 | 92 | 1011.2 |
| 20260505224559 | 59 | 126 | 2.0 | 5.0 | 0.01 | 0.41 | 0.01 | 92 | 1011.1 |
| 20260505224458 | 59 | 126 | 3.0 | 5.0 | 0.01 | 0.41 | 0.01 | 92 | 1011.1 |
| 20260505224300 | 59 | 126 | 3.0 | 5.0 | 0.01 | 0.41 | 0.01 | 92 | 1011.2 |
| 20260505224200 | 59 | 126 | 3.0 | 5.0 | 0.01 | 0.41 | 0.01 | 92 | 1011.2 |
| 20260505224102 | 59 | 126 | 3.0 | 5.0 | 0.01 | 0.41 | 0.01 | 92 | 1011.2 |
| 20260505224000 | 60 | 126 | 3.0 | 5.0 | 0.01 | 0.41 | 0.01 | 92 | 1011.2 |
| 20260505223859 | 60 | 126 | 3.0 | 5.0 | 0.01 | 0.41 | 0.01 | 92 | 1011.1 |
| 20260505223802 | 60 | 128 | 4.0 | 5.0 | 0.01 | 0.41 | 0.01 | 92 | 1011.1 |
| 20260505223600 | 60 | 111 | 4.0 | 6.0 | 0.01 | 0.41 | 0.01 | 92 | 1011.1 |
| 20260505223502 | 60 | 90 | 5.0 | 6.0 | 0.01 | 0.41 | 0.01 | 92 | 1011.2 |
| 20260505223359 | 60 | 90 | 3.0 | 6.0 | 0.01 | 0.41 | 0.01 | 92 | 1011.2 |
| 20260505223259 | 60 | 90 | 2.0 | 6.0 | 0.01 | 0.41 | 0.01 | 91 | 1011.2 |
| 20260505223202 | 60 | 90 | 5.0 | 6.0 | 0.01 | 0.41 | 0.01 | 91 | 1011.2 |
| 20260505223001 | 60 | 90 | 3.0 | 6.0 | 0.01 | 0.41 | 0.01 | 91 | 1011.2 |
| 20260505222903 | 60 | 90 | 3.0 | 6.0 | 0.01 | 0.41 | 0.01 | 91 | 1011.2 |
| 20260505222800 | 60 | 90 | 3.0 | 6.0 | 0.01 | 0.41 | 0.01 | 91 | 1011.2 |
| 20260505222659 | 60 | 90 | 3.0 | 6.0 | 0.01 | 0.41 | 0.01 | 91 | 1011.3 |
| 20260505222500 | 60 | 90 | 3.0 | 6.0 | 0.01 | 0.41 | 0.01 | 91 | 1011.3 |
| 20260505222305 | 60 | 90 | 3.0 | 6.0 | 0.01 | 0.41 | 0.01 | 91 | 1011.4 |
| 20260505222159 | 60 | 90 | 5.0 | 5.0 | 0.01 | 0.41 | 0.01 | 91 | 1011.4 |
| 20260505222059 | 60 | 90 | 5.0 | 5.0 | 0.01 | 0.41 | 0.01 | 91 | 1011.4 |
| 20260505222004 | 60 | 90 | 3.0 | 5.0 | 0.01 | 0.41 | 0.01 | 91 | 1011.4 |
| 20260505221900 | 60 | 90 | 2.0 | 3.0 | 0.01 | 0.41 | 0.01 | 91 | 1011.4 |
| 20260505221702 | 60 | 90 | 2.0 | 3.0 | 0.01 | 0.41 | 0.01 | 91 | 1011.4 |
| 20260505221600 | 60 | 90 | 2.0 | 3.0 | 0.01 | 0.41 | 0.01 | 91 | 1011.4 |
| 20260505221500 | 60 | 90 | 2.0 | 3.0 | 0.01 | 0.41 | 0.01 | 91 | 1011.4 |
| 20260505221403 | 60 | 90 | 3.0 | 3.0 | 0.01 | 0.41 | 0.01 | 91 | 1011.4 |
| 20260505221300 | 60 | 90 | 3.0 | 3.0 | 0.01 | 0.41 | 0.01 | 91 | 1011.4 |
| 20260505221000 | 60 | 90 | 2.0 | 3.0 | 0.00 | 0.40 | 0.00 | 91 | 1011.5 |
| 20260505220900 | 60 | 90 | 2.0 | 5.0 | 0.00 | 0.40 | 0.00 | 91 | 1011.5 |
| 20260505220659 | 60 | 90 | 2.0 | 5.0 | 0.00 | 0.40 | 0.00 | 91 | 1011.5 |
| 20260505220559 | 60 | 90 | 2.0 | 5.0 | 0.00 | 0.40 | 0.00 | 91 | 1011.6 |
| 20260505220400 | 60 | 90 | 1.0 | 5.0 | 0.00 | 0.40 | 0.00 | 90 | 1011.6 |
| 20260505220301 | 60 | 90 | 1.0 | 5.0 | 0.00 | 0.40 | 0.00 | 90 | 1011.6 |
| 20260505220115 | 60 | 90 | 1.0 | 5.0 | 0.00 | 0.40 | 0.00 | 90 | 1011.7 |
| 20260505220006 | 60 | 90 | 3.0 | 5.0 | 0.00 | 0.40 | 0.00 | 90 | 1011.7 |
| 20260505215800 | 60 | 90 | 5.0 | 5.0 | 0.00 | 0.40 | 0.40 | 90 | 1011.7 |
| 20260505215700 | 60 | 90 | 3.0 | 5.0 | 0.00 | 0.40 | 0.40 | 90 | 1011.7 |
| 20260505215400 | 60 | 90 | 0.0 | 3.0 | 0.00 | 0.40 | 0.40 | 90 | 1011.7 |
| 20260505215305 | 60 | 90 | 1.0 | 3.0 | 0.00 | 0.40 | 0.40 | 90 | 1011.6 |
| 20260505215200 | 60 | 90 | 0.0 | 3.0 | 0.00 | 0.40 | 0.40 | 90 | 1011.7 |
| 20260505215101 | 60 | 90 | 0.0 | 3.0 | 0.00 | 0.40 | 0.40 | 90 | 1011.7 |
| 20260505215004 | 60 | 90 | 2.0 | 3.0 | 0.00 | 0.40 | 0.40 | 90 | 1011.7 |
| 20260505214901 | 60 | 90 | 1.0 | 3.0 | 0.00 | 0.40 | 0.40 | 90 | 1011.7 |
| 20260505214702 | 60 | 90 | 2.0 | 3.0 | 0.00 | 0.40 | 0.40 | 90 | 1011.7 |
| 20260505214601 | 60 | 90 | 3.0 | 3.0 | 0.00 | 0.40 | 0.40 | 90 | 1011.7 |
| 20260505214501 | 60 | 90 | 3.0 | 5.0 | 0.00 | 0.40 | 0.40 | 90 | 1011.7 |
| 20260505214403 | 60 | 90 | 1.0 | 5.0 | 0.00 | 0.40 | 0.40 | 90 | 1011.7 |
| 20260505214301 | 60 | 90 | 1.0 | 5.0 | 0.00 | 0.40 | 0.40 | 90 | 1011.7 |
| 20260505214200 | 60 | 90 | 2.0 | 5.0 | 0.00 | 0.40 | 0.40 | 90 | 1011.7 |
| 20260505214001 | 60 | 90 | 1.0 | 5.0 | 0.00 | 0.40 | 0.40 | 89 | 1011.7 |
| 20260505213900 | 60 | 90 | 1.0 | 5.0 | 0.00 | 0.40 | 0.40 | 89 | 1011.7 |
| 20260505213803 | 60 | 90 | 0.0 | 5.0 | 0.00 | 0.40 | 0.40 | 89 | 1011.7 |
| 20260505213700 | 60 | 90 | 2.0 | 5.0 | 0.00 | 0.40 | 0.40 | 89 | 1011.8 |
| 20260505213504 | 60 | 90 | 3.0 | 5.0 | 0.00 | 0.40 | 0.40 | 89 | 1011.8 |
| 20260505213401 | 60 | 90 | 2.0 | 3.0 | 0.00 | 0.40 | 0.40 | 89 | 1011.7 |
| 20260505213301 | 60 | 90 | 1.0 | 3.0 | 0.00 | 0.40 | 0.40 | 89 | 1011.8 |
| 20260505213203 | 60 | 90 | 0.0 | 3.0 | 0.00 | 0.40 | 0.40 | 89 | 1011.7 |
| 20260505213101 | 60 | 90 | 1.0 | 3.0 | 0.00 | 0.40 | 0.40 | 89 | 1011.8 |
| 20260505213002 | 60 | 90 | 2.0 | 3.0 | 0.00 | 0.40 | 0.40 | 89 | 1011.8 |
| 20260505212903 | 60 | 90 | 0.0 | 3.0 | 0.00 | 0.40 | 0.40 | 89 | 1011.7 |
| 20260505212700 | 60 | 90 | 2.0 | 3.0 | 0.00 | 0.40 | 0.40 | 89 | 1011.7 |
| 20260505212501 | 60 | 90 | 2.0 | 6.0 | 0.00 | 0.40 | 0.40 | 89 | 1011.7 |
| 20260505212401 | 60 | 90 | 2.0 | 6.0 | 0.00 | 0.40 | 0.40 | 89 | 1011.7 |
| 20260505212159 | 60 | 90 | 3.0 | 7.0 | 0.00 | 0.40 | 0.40 | 88 | 1011.7 |
| 20260505212100 | 60 | 90 | 2.0 | 7.0 | 0.00 | 0.40 | 0.40 | 88 | 1011.7 |
| 20260505212004 | 60 | 90 | 2.0 | 7.0 | 0.00 | 0.40 | 0.40 | 88 | 1011.6 |
| 20260505211900 | 60 | 90 | 1.0 | 7.0 | 0.00 | 0.40 | 0.40 | 88 | 1011.7 |
| 20260505211800 | 61 | 90 | 2.0 | 7.0 | 0.00 | 0.40 | 0.40 | 88 | 1011.7 |
| 20260505211703 | 61 | 90 | 2.0 | 7.0 | 0.00 | 0.40 | 0.40 | 88 | 1011.7 |
| 20260505211600 | 61 | 90 | 2.0 | 7.0 | 0.00 | 0.40 | 0.40 | 88 | 1011.7 |
| 20260505211301 | 61 | 90 | 6.0 | 7.0 | 0.00 | 0.40 | 0.40 | 88 | 1011.7 |
| 20260505211200 | 61 | 90 | 5.0 | 7.0 | 0.00 | 0.40 | 0.40 | 88 | 1011.7 |
| 20260505211103 | 61 | 90 | 5.0 | 7.0 | 0.00 | 0.40 | 0.40 | 88 | 1011.7 |
| 20260505211001 | 61 | 90 | 5.0 | 7.0 | 0.00 | 0.40 | 0.40 | 88 | 1011.7 |
| 20260505210900 | 61 | 90 | 6.0 | 7.0 | 0.00 | 0.40 | 0.40 | 88 | 1011.7 |
| 20260505210803 | 61 | 90 | 5.0 | 7.0 | 0.00 | 0.40 | 0.40 | 88 | 1011.7 |
| 20260505210700 | 61 | 90 | 5.0 | 7.0 | 0.00 | 0.40 | 0.40 | 88 | 1011.7 |
| 20260505210503 | 61 | 90 | 1.0 | 7.0 | 0.00 | 0.40 | 0.40 | 88 | 1011.7 |
| 20260505210400 | 61 | 90 | 0.0 | 7.0 | 0.00 | 0.40 | 0.40 | 88 | 1011.7 |
| 20260505210301 | 61 | 90 | 1.0 | 8.0 | 0.00 | 0.40 | 0.40 | 88 | 1011.7 |
| 20260505210203 | 61 | 90 | 2.0 | 8.0 | 0.00 | 0.40 | 0.40 | 88 | 1011.8 |
| 20260505210001 | 61 | 90 | 6.0 | 8.0 | 0.00 | 0.40 | 0.40 | 88 | 1011.7 |
| 20260505205904 | 61 | 90 | 6.0 | 8.0 | 0.00 | 0.40 | 0.40 | 88 | 1011.7 |
| 20260505205800 | 61 | 90 | 6.0 | 8.0 | 0.00 | 0.40 | 0.40 | 88 | 1011.7 |
| 20260505205605 | 61 | 90 | 6.0 | 8.0 | 0.00 | 0.40 | 0.40 | 88 | 1011.7 |
| 20260505205501 | 61 | 84 | 5.0 | 8.0 | 0.00 | 0.40 | 0.40 | 88 | 1011.7 |
| 20260505205401 | 61 | 84 | 6.0 | 8.0 | 0.00 | 0.40 | 0.40 | 88 | 1011.7 |
| 20260505205306 | 61 | 75 | 7.0 | 8.0 | 0.00 | 0.40 | 0.40 | 88 | 1011.6 |
| 20260505205201 | 61 | 71 | 5.0 | 8.0 | 0.00 | 0.40 | 0.40 | 88 | 1011.6 |
| 20260505205101 | 61 | 71 | 7.0 | 8.0 | 0.00 | 0.40 | 0.40 | 87 | 1011.6 |
| 20260505205004 | 61 | 82 | 7.0 | 7.0 | 0.00 | 0.40 | 0.40 | 88 | 1011.6 |
| 20260505204900 | 61 | 67 | 3.0 | 6.0 | 0.00 | 0.40 | 0.40 | 87 | 1011.6 |
| 20260505204800 | 61 | 63 | 4.0 | 5.0 | 0.00 | 0.40 | 0.40 | 87 | 1011.6 |
| 20260505204703 | 61 | 60 | 4.0 | 5.0 | 0.00 | 0.40 | 0.40 | 87 | 1011.6 |
| 20260505204501 | 61 | 37 | 3.0 | 4.0 | 0.00 | 0.40 | 0.40 | 87 | 1011.6 |
| 20260505204403 | 61 | 58 | 3.0 | 4.0 | 0.00 | 0.40 | 0.40 | 87 | 1011.5 |
| 20260505204259 | 61 | 58 | 3.0 | 4.0 | 0.00 | 0.40 | 0.40 | 87 | 1011.5 |
| 20260505203803 | 61 | 114 | 2.0 | 3.0 | 0.00 | 0.40 | 0.40 | 87 | 1011.6 |
| 20260505203700 | 61 | 114 | 1.0 | 3.0 | 0.00 | 0.40 | 0.40 | 87 | 1011.5 |
| 20260505203601 | 61 | 114 | 1.0 | 3.0 | 0.00 | 0.40 | 0.40 | 87 | 1011.6 |
| 20260505203504 | 61 | 114 | 2.0 | 3.0 | 0.00 | 0.40 | 0.40 | 87 | 1011.5 |
| 20260505203400 | 61 | 114 | 2.0 | 3.0 | 0.00 | 0.40 | 0.40 | 89 | 1011.6 |
| 20260505203303 | 61 | 144 | 2.0 | 3.0 | 0.00 | 0.40 | 0.40 | 86 | 1011.6 |
| 20260505203103 | 61 | 144 | 1.0 | 2.0 | 0.00 | 0.40 | 0.40 | 86 | 1011.5 |
| 20260505203002 | 61 | 144 | 1.0 | 2.0 | 0.00 | 0.40 | 0.40 | 86 | 1011.6 |
| 20260505202801 | 61 | 144 | 0.0 | 2.0 | 0.00 | 0.40 | 0.40 | 86 | 1011.6 |
| 20260505202701 | 61 | 144 | 1.0 | 2.0 | 0.00 | 0.40 | 0.40 | 86 | 1011.5 |
| 20260505202607 | 61 | 144 | 1.0 | 2.0 | 0.00 | 0.40 | 0.40 | 86 | 1011.5 |
| 20260505202502 | 61 | 136 | 1.0 | 2.0 | 0.00 | 0.40 | 0.40 | 86 | 1011.6 |
| 20260505202401 | 61 | 136 | 0.0 | 3.0 | 0.00 | 0.40 | 0.40 | 86 | 1011.6 |
| 20260505202308 | 61 | 136 | 0.0 | 4.0 | 0.00 | 0.40 | 0.40 | 86 | 1011.6 |
| 20260505202202 | 61 | 136 | 1.0 | 4.0 | 0.00 | 0.40 | 0.40 | 86 | 1011.5 |
| 20260505202101 | 61 | 128 | 2.0 | 4.0 | 0.00 | 0.40 | 0.40 | 86 | 1011.5 |
| 20260505202006 | 61 | 128 | 1.0 | 4.0 | 0.00 | 0.40 | 0.40 | 86 | 1011.5 |
| 20260505201901 | 61 | 128 | 2.0 | 5.0 | 0.00 | 0.40 | 0.40 | 86 | 1011.5 |
| 20260505201602 | 62 | 128 | 1.0 | 5.0 | 0.00 | 0.40 | 0.40 | 86 | 1011.5 |
| 20260505201501 | 62 | 128 | 1.0 | 5.0 | 0.00 | 0.40 | 0.40 | 86 | 1011.5 |
| 20260505201302 | 62 | 130 | 3.0 | 7.0 | 0.00 | 0.40 | 0.40 | 86 | 1011.5 |
| 20260505201202 | 62 | 130 | 3.0 | 7.0 | 0.00 | 0.40 | 0.40 | 86 | 1011.5 |
| 20260505201105 | 62 | 130 | 3.0 | 7.0 | 0.00 | 0.40 | 0.40 | 86 | 1011.5 |
| 20260505200902 | 61 | 133 | 4.0 | 9.0 | 0.00 | 0.40 | 0.40 | 87 | 1011.4 |
| 20260505200806 | 61 | 142 | 3.0 | 9.0 | 0.00 | 0.40 | 0.40 | 87 | 1011.3 |
| 20260505200703 | 61 | 133 | 3.0 | 9.0 | 0.00 | 0.40 | 0.40 | 87 | 1011.4 |
| 20260505200601 | 61 | 180 | 1.0 | 9.0 | 0.00 | 0.40 | 0.40 | 87 | 1011.4 |
| 20260505200507 | 61 | 180 | 5.0 | 9.0 | 0.00 | 0.40 | 0.40 | 88 | 1011.4 |
| 20260505200206 | 61 | 176 | 2.0 | 9.0 | 0.00 | 0.40 | 0.40 | 88 | 1011.4 |
| 20260505200005 | 61 | 182 | 3.0 | 9.0 | 0.00 | 0.40 | 0.40 | 89 | 1011.5 |
| 20260505195906 | 61 | 187 | 2.0 | 9.0 | 0.00 | 0.40 | 0.40 | 89 | 1011.5 |
| 20260505195703 | 61 | 159 | 4.0 | 7.0 | 0.00 | 0.40 | 0.40 | 89 | 1011.5 |
| 20260505195606 | 61 | 192 | 4.0 | 7.0 | 0.00 | 0.40 | 0.40 | 89 | 1011.5 |
| 20260505195502 | 61 | 213 | 2.0 | 7.0 | 0.00 | 0.40 | 0.40 | 89 | 1011.5 |
| 20260505195402 | 61 | 198 | 3.0 | 7.0 | 0.00 | 0.40 | 0.40 | 89 | 1011.5 |
| 20260505195308 | 61 | 198 | 2.0 | 7.0 | 0.00 | 0.40 | 0.40 | 89 | 1011.5 |
| 20260505195201 | 61 | 198 | 3.0 | 7.0 | 0.00 | 0.40 | 0.40 | 89 | 1011.5 |
| 20260505195102 | 61 | 198 | 2.0 | 7.0 | 0.00 | 0.40 | 0.40 | 89 | 1011.5 |
| 20260505194804 | 61 | 188 | 0.0 | 7.0 | 0.00 | 0.40 | 0.40 | 89 | 1011.5 |
| 20260505194706 | 61 | 189 | 4.0 | 7.0 | 0.00 | 0.40 | 0.40 | 89 | 1011.5 |
| 20260505194601 | 61 | 194 | 5.0 | 7.0 | 0.00 | 0.40 | 0.40 | 89 | 1011.5 |
| 20260505194504 | 61 | 180 | 2.0 | 5.0 | 0.00 | 0.40 | 0.40 | 89 | 1011.5 |
| 20260505194302 | 61 | 136 | 2.0 | 3.0 | 0.00 | 0.40 | 0.40 | 89 | 1011.5 |
| 20260505194203 | 61 | 136 | 2.0 | 3.0 | 0.00 | 0.40 | 0.40 | 89 | 1011.5 |
| 20260505194107 | 61 | 13 | 1.0 | 2.0 | 0.00 | 0.40 | 0.40 | 89 | 1011.5 |
| 20260505194002 | 61 | 13 | 0.0 | 2.0 | 0.00 | 0.40 | 0.40 | 88 | 1011.4 |
| 20260505193901 | 61 | 13 | 0.0 | 2.0 | 0.00 | 0.40 | 0.40 | 88 | 1011.4 |
| 20260505193808 | 61 | 13 | 1.0 | 2.0 | 0.00 | 0.40 | 0.40 | 88 | 1011.4 |
| 20260505193702 | 61 | 13 | 1.0 | 2.0 | 0.00 | 0.40 | 0.40 | 88 | 1011.3 |
| 20260505193521 | 61 | 13 | 0.0 | 3.0 | 0.00 | 0.40 | 0.40 | 88 | 1011.3 |
| 20260505193402 | 61 | 13 | 0.0 | 3.0 | 0.00 | 0.40 | 0.40 | 88 | 1011.3 |
| 20260505193301 | 61 | 13 | 1.0 | 3.0 | 0.00 | 0.40 | 0.40 | 88 | 1011.3 |
| 20260505193208 | 61 | 13 | 2.0 | 3.0 | 0.00 | 0.40 | 0.40 | 88 | 1011.3 |
| 20260505193101 | 61 | 13 | 2.0 | 3.0 | 0.00 | 0.40 | 0.40 | 88 | 1011.3 |
| 20260505193003 | 61 | 13 | 1.0 | 3.0 | 0.00 | 0.40 | 0.40 | 87 | 1011.3 |
| 20260505192803 | 62 | 13 | 1.0 | 3.0 | 0.00 | 0.40 | 0.40 | 87 | 1011.2 |
| 20260505192701 | 62 | 13 | 2.0 | 3.0 | 0.00 | 0.40 | 0.40 | 87 | 1011.2 |
| 20260505192606 | 62 | 13 | 3.0 | 3.0 | 0.00 | 0.40 | 0.40 | 87 | 1011.2 |
| 20260505192501 | 62 | 13 | 2.0 | 3.0 | 0.00 | 0.40 | 0.40 | 87 | 1011.2 |
| 20260505192201 | 62 | 13 | 1.0 | 3.0 | 0.00 | 0.40 | 0.40 | 87 | 1011.2 |
| 20260505192006 | 62 | 13 | 2.0 | 3.0 | 0.00 | 0.40 | 0.40 | 87 | 1011.2 |
| 20260505191902 | 62 | 13 | 1.0 | 3.0 | 0.00 | 0.40 | 0.40 | 87 | 1011.2 |
| 20260505191800 | 62 | 13 | 1.0 | 3.0 | 0.00 | 0.40 | 0.40 | 87 | 1011.1 |
| 20260505191601 | 62 | 13 | 1.0 | 3.0 | 0.00 | 0.40 | 0.40 | 87 | 1011.1 |
| 20260505191404 | 62 | 13 | 1.0 | 3.0 | 0.00 | 0.40 | 0.40 | 86 | 1011.0 |
| 20260505191200 | 62 | 13 | 1.0 | 3.0 | 0.00 | 0.40 | 0.40 | 86 | 1011.0 |
| 20260505191103 | 62 | 13 | 2.0 | 3.0 | 0.00 | 0.40 | 0.40 | 86 | 1011.0 |
| 20260505191004 | 62 | 13 | 3.0 | 3.0 | 0.00 | 0.40 | 0.40 | 86 | 1011.0 |
| 20260505190859 | 62 | 305 | 2.0 | 3.0 | 0.00 | 0.40 | 0.40 | 86 | 1011.0 |
| 20260505190701 | 62 | 305 | 2.0 | 3.0 | 0.00 | 0.40 | 0.40 | 86 | 1011.0 |
| 20260505190601 | 63 | 305 | 3.0 | 3.0 | 0.00 | 0.40 | 0.40 | 86 | 1011.0 |
| 20260505190506 | 63 | 305 | 2.0 | 2.0 | 0.00 | 0.40 | 0.40 | 86 | 1011.0 |
| 20260505190401 | 63 | 305 | 1.0 | 2.0 | 0.00 | 0.40 | 0.40 | 86 | 1010.9 |
| 20260505190301 | 63 | 305 | 1.0 | 2.0 | 0.00 | 0.40 | 0.40 | 86 | 1010.9 |
| 20260505190205 | 63 | 305 | 1.0 | 2.0 | 0.00 | 0.40 | 0.40 | 86 | 1010.9 |
| 20260505190005 | 63 | 305 | 1.0 | 2.0 | 0.00 | 0.40 | 0.40 | 86 | 1010.8 |
| 20260505185801 | 63 | 305 | 1.0 | 2.0 | 0.00 | 0.40 | 0.40 | 86 | 1010.8 |
| 20260505185701 | 63 | 305 | 2.0 | 3.0 | 0.00 | 0.40 | 0.40 | 85 | 1010.9 |
| 20260505185605 | 63 | 305 | 1.0 | 3.0 | 0.00 | 0.40 | 0.40 | 85 | 1010.9 |
| 20260505185501 | 63 | 305 | 2.0 | 3.0 | 0.00 | 0.40 | 0.40 | 85 | 1010.8 |
| 20260505185401 | 63 | 305 | 1.0 | 3.0 | 0.00 | 0.40 | 0.40 | 85 | 1010.8 |
| 20260505185305 | 63 | 305 | 0.0 | 3.0 | 0.00 | 0.40 | 0.40 | 85 | 1010.8 |
| 20260505185200 | 63 | 305 | 0.0 | 3.0 | 0.00 | 0.40 | 0.40 | 85 | 1010.8 |
| 20260505185100 | 63 | 305 | 0.0 | 3.0 | 0.00 | 0.40 | 0.40 | 85 | 1010.7 |
| 20260505185005 | 63 | 305 | 1.0 | 3.0 | 0.00 | 0.40 | 0.40 | 85 | 1010.7 |
| 20260505184703 | 63 | 305 | 2.0 | 3.0 | 0.00 | 0.40 | 0.40 | 84 | 1010.8 |
| 20260505184601 | 63 | 151 | 0.0 | 3.0 | 0.00 | 0.40 | 0.40 | 84 | 1010.7 |
| 20260505184302 | 63 | 151 | 2.0 | 3.0 | 0.00 | 0.40 | 0.40 | 83 | 1010.7 |
| 20260505184201 | 63 | 151 | 2.0 | 3.0 | 0.00 | 0.40 | 0.40 | 83 | 1010.7 |
| 20260505184104 | 63 | 151 | 0.0 | 3.0 | 0.00 | 0.40 | 0.40 | 83 | 1010.7 |
| 20260505184000 | 63 | 151 | 1.0 | 3.0 | 0.00 | 0.40 | 0.40 | 83 | 1010.6 |
| 20260505183901 | 63 | 151 | 3.0 | 3.0 | 0.00 | 0.40 | 0.40 | 83 | 1010.7 |
| 20260505183804 | 63 | 172 | 2.0 | 3.0 | 0.00 | 0.40 | 0.40 | 83 | 1010.7 |
| 20260505183701 | 63 | 172 | 1.0 | 3.0 | 0.00 | 0.40 | 0.40 | 83 | 1010.7 |
| 20260505183401 | 64 | 172 | 1.0 | 3.0 | 0.00 | 0.40 | 0.40 | 83 | 1010.7 |
| 20260505183304 | 64 | 172 | 1.0 | 3.0 | 0.00 | 0.40 | 0.40 | 83 | 1010.6 |
| 20260505183204 | 64 | 172 | 1.0 | 3.0 | 0.00 | 0.40 | 0.40 | 83 | 1010.6 |
| 20260505183101 | 64 | 172 | 2.0 | 3.0 | 0.01 | 0.40 | 0.40 | 83 | 1010.6 |
| 20260505183001 | 64 | 172 | 1.0 | 3.0 | 0.01 | 0.40 | 0.40 | 83 | 1010.7 |
| 20260505182904 | 64 | 172 | 2.0 | 3.0 | 0.01 | 0.40 | 0.40 | 83 | 1010.7 |
| 20260505182800 | 64 | 172 | 2.0 | 3.0 | 0.01 | 0.40 | 0.40 | 83 | 1010.7 |
| 20260505182701 | 64 | 192 | 1.0 | 2.0 | 0.01 | 0.40 | 0.40 | 83 | 1010.6 |
| 20260505182603 | 64 | 192 | 1.0 | 2.0 | 0.01 | 0.40 | 0.40 | 83 | 1010.6 |
| 20260505182501 | 64 | 201 | 1.0 | 2.0 | 0.01 | 0.40 | 0.40 | 82 | 1010.6 |
| 20260505182401 | 64 | 201 | 1.0 | 2.0 | 0.01 | 0.40 | 0.40 | 82 | 1010.6 |
| 20260505182306 | 64 | 207 | 1.0 | 1.0 | 0.01 | 0.40 | 0.40 | 82 | 1010.7 |
| 20260505182100 | 64 | 207 | 1.0 | 2.0 | 0.01 | 0.40 | 0.40 | 81 | 1010.7 |
| 20260505181705 | 65 | 207 | 0.0 | 2.0 | 0.01 | 0.40 | 0.40 | 81 | 1010.6 |
| 20260505181601 | 65 | 207 | 0.0 | 2.0 | 0.01 | 0.40 | 0.40 | 81 | 1010.6 |
| 20260505181501 | 65 | 207 | 0.0 | 2.0 | 0.01 | 0.40 | 0.40 | 81 | 1010.6 |
| 20260505181403 | 65 | 207 | 0.0 | 3.0 | 0.01 | 0.40 | 0.40 | 80 | 1010.6 |
| 20260505181103 | 65 | 207 | 0.0 | 4.0 | 0.01 | 0.40 | 0.40 | 81 | 1010.6 |
| 20260505181001 | 65 | 207 | 0.0 | 4.0 | 0.01 | 0.40 | 0.40 | 80 | 1010.6 |
| 20260505180859 | 65 | 207 | 0.0 | 4.0 | 0.01 | 0.40 | 0.40 | 80 | 1010.6 |
| 20260505180700 | 65 | 207 | 1.0 | 5.0 | 0.01 | 0.40 | 0.40 | 80 | 1010.6 |
| 20260505180504 | 65 | 203 | 2.0 | 5.0 | 0.01 | 0.40 | 0.40 | 80 | 1010.6 |
| 20260505180401 | 65 | 202 | 3.0 | 5.0 | 0.01 | 0.40 | 0.40 | 79 | 1010.5 |
| 20260505180300 | 65 | 202 | 3.0 | 5.0 | 0.01 | 0.40 | 0.40 | 79 | 1010.6 |
| 20260505180200 | 65 | 202 | 1.0 | 5.0 | 0.01 | 0.40 | 0.40 | 79 | 1010.5 |
| 20260505180118 | 65 | 202 | 3.0 | 7.0 | 0.01 | 0.40 | 0.40 | 79 | 1010.5 |
| 20260505180005 | 65 | 202 | 3.0 | 7.0 | 0.01 | 0.40 | 0.40 | 79 | 1010.5 |
| 20260505175900 | 65 | 187 | 2.0 | 7.0 | 0.01 | 0.40 | 0.40 | 79 | 1010.5 |
| 20260505175804 | 65 | 196 | 4.0 | 9.0 | 0.01 | 0.40 | 0.40 | 79 | 1010.5 |
| 20260505175700 | 65 | 191 | 2.0 | 10.0 | 0.01 | 0.40 | 0.40 | 79 | 1010.5 |
| 20260505175600 | 65 | 234 | 3.0 | 10.0 | 0.01 | 0.40 | 0.40 | 79 | 1010.5 |
| 20260505175503 | 65 | 173 | 3.0 | 10.0 | 0.01 | 0.40 | 0.40 | 79 | 1010.5 |
| 20260505175400 | 65 | 172 | 3.0 | 10.0 | 0.01 | 0.40 | 0.40 | 79 | 1010.4 |
| 20260505175300 | 65 | 177 | 3.0 | 10.0 | 0.01 | 0.40 | 0.40 | 79 | 1010.3 |
| 20260505175203 | 65 | 144 | 2.0 | 10.0 | 0.01 | 0.40 | 0.40 | 79 | 1010.3 |
| 20260505175101 | 65 | 169 | 3.0 | 10.0 | 0.01 | 0.40 | 0.40 | 79 | 1010.3 |
| 20260505175001 | 65 | 144 | 3.0 | 10.0 | 0.01 | 0.40 | 0.40 | 79 | 1010.3 |
| 20260505174902 | 65 | 146 | 6.0 | 10.0 | 0.01 | 0.40 | 0.40 | 79 | 1010.2 |
| 20260505174800 | 65 | 154 | 6.0 | 10.0 | 0.01 | 0.40 | 0.40 | 79 | 1010.2 |
| 20260505174603 | 66 | 133 | 7.0 | 9.0 | 0.01 | 0.40 | 0.40 | 79 | 1010.2 |
| 20260505174501 | 66 | 144 | 8.0 | 9.0 | 0.01 | 0.40 | 0.40 | 79 | 1010.3 |
| 20260505174400 | 66 | 140 | 7.0 | 7.0 | 0.01 | 0.40 | 0.40 | 79 | 1010.3 |
| 20260505174303 | 66 | 134 | 6.0 | 7.0 | 0.01 | 0.40 | 0.40 | 79 | 1010.3 |
| 20260505174201 | 66 | 162 | 4.0 | 7.0 | 0.01 | 0.40 | 0.40 | 79 | 1010.4 |
| 20260505174100 | 66 | 156 | 2.0 | 7.0 | 0.01 | 0.40 | 0.40 | 79 | 1010.4 |
| 20260505174004 | 66 | 150 | 4.0 | 7.0 | 0.01 | 0.40 | 0.40 | 79 | 1010.4 |
| 20260505173900 | 66 | 140 | 5.0 | 7.0 | 0.01 | 0.40 | 0.40 | 79 | 1010.4 |
| 20260505173800 | 66 | 138 | 5.0 | 7.0 | 0.01 | 0.40 | 0.40 | 78 | 1010.5 |
| 20260505173703 | 66 | 156 | 3.0 | 6.0 | 0.01 | 0.40 | 0.40 | 78 | 1010.4 |
| 20260505173600 | 66 | 142 | 4.0 | 6.0 | 0.01 | 0.40 | 0.40 | 78 | 1010.5 |
| 20260505173500 | 66 | 145 | 1.0 | 6.0 | 0.01 | 0.40 | 0.40 | 77 | 1010.5 |
| 20260505173403 | 66 | 159 | 1.0 | 8.0 | 0.01 | 0.40 | 0.40 | 77 | 1010.5 |
| 20260505173300 | 66 | 163 | 2.0 | 8.0 | 0.01 | 0.40 | 0.40 | 77 | 1010.6 |
| 20260505173201 | 66 | 153 | 4.0 | 8.0 | 0.01 | 0.40 | 0.40 | 77 | 1010.6 |
| 20260505173103 | 67 | 162 | 2.0 | 8.0 | 0.00 | 0.39 | 0.39 | 76 | 1010.6 |
| 20260505172900 | 67 | 165 | 2.0 | 8.0 | 0.00 | 0.39 | 0.39 | 76 | 1010.6 |
| 20260505172804 | 67 | 186 | 3.0 | 8.0 | 0.00 | 0.39 | 0.39 | 75 | 1010.6 |
| 20260505172700 | 67 | 174 | 4.0 | 8.0 | 0.00 | 0.39 | 0.39 | 75 | 1010.6 |
| 20260505172601 | 67 | 182 | 5.0 | 8.0 | 0.00 | 0.39 | 0.39 | 75 | 1010.5 |
| 20260505172400 | 67 | 182 | 6.0 | 8.0 | 0.00 | 0.39 | 0.39 | 74 | 1010.5 |
| 20260505172100 | 67 | 161 | 4.0 | 8.0 | 0.00 | 0.39 | 0.39 | 74 | 1010.5 |
| 20260505171903 | 67 | 165 | 2.0 | 9.0 | 0.00 | 0.39 | 0.39 | 74 | 1010.4 |
| 20260505171800 | 67 | 155 | 3.0 | 9.0 | 0.00 | 0.39 | 0.39 | 74 | 1010.4 |
| 20260505171700 | 67 | 157 | 3.0 | 9.0 | 0.00 | 0.39 | 0.39 | 74 | 1010.4 |
| 20260505171605 | 67 | 206 | 5.0 | 9.0 | 0.00 | 0.39 | 0.39 | 74 | 1010.3 |
| 20260505171501 | 67 | 153 | 3.0 | 10.0 | 0.00 | 0.39 | 0.39 | 75 | 1010.4 |
| 20260505171400 | 67 | 147 | 5.0 | 10.0 | 0.00 | 0.39 | 0.39 | 74 | 1010.4 |
| 20260505171303 | 67 | 146 | 5.0 | 11.0 | 0.00 | 0.39 | 0.39 | 74 | 1010.4 |
| 20260505171200 | 67 | 142 | 4.0 | 11.0 | 0.00 | 0.39 | 0.39 | 74 | 1010.4 |
| 20260505171100 | 67 | 114 | 8.0 | 11.0 | 0.00 | 0.39 | 0.39 | 74 | 1010.4 |
| 20260505171005 | 67 | 139 | 6.0 | 11.0 | 0.00 | 0.39 | 0.39 | 74 | 1010.3 |
| 20260505170902 | 67 | 126 | 9.0 | 11.0 | 0.00 | 0.39 | 0.39 | 74 | 1010.3 |
| 20260505170801 | 67 | 136 | 8.0 | 11.0 | 0.00 | 0.39 | 0.39 | 73 | 1010.3 |
| 20260505170702 | 67 | 117 | 10.0 | 11.0 | 0.00 | 0.39 | 0.39 | 73 | 1010.3 |
| 20260505170600 | 68 | 131 | 7.0 | 11.0 | 0.00 | 0.39 | 0.39 | 73 | 1010.3 |
| 20260505170500 | 68 | 136 | 10.0 | 11.0 | 0.00 | 0.39 | 0.39 | 73 | 1010.4 |
| 20260505170403 | 68 | 123 | 9.0 | 11.0 | 0.00 | 0.39 | 0.39 | 73 | 1010.3 |
| 20260505170300 | 68 | 140 | 11.0 | 11.0 | 0.00 | 0.39 | 0.39 | 73 | 1010.3 |
| 20260505170201 | 68 | 123 | 10.0 | 10.0 | 0.00 | 0.39 | 0.39 | 73 | 1010.4 |
| 20260505170103 | 68 | 131 | 7.0 | 9.0 | 0.00 | 0.39 | 0.39 | 73 | 1010.3 |
| 20260505170005 | 68 | 138 | 8.0 | 9.0 | 0.00 | 0.39 | 0.39 | 73 | 1010.3 |
| 20260505165901 | 68 | 126 | 7.0 | 8.0 | 0.00 | 0.39 | 0.39 | 72 | 1010.4 |
| 20260505165804 | 69 | 128 | 6.0 | 8.0 | 0.00 | 0.39 | 0.39 | 72 | 1010.3 |
| 20260505165701 | 69 | 121 | 3.0 | 8.0 | 0.00 | 0.39 | 0.39 | 71 | 1010.3 |
| 20260505165600 | 69 | 128 | 6.0 | 8.0 | 0.00 | 0.39 | 0.39 | 71 | 1010.3 |
| 20260505165507 | 69 | 104 | 5.0 | 8.0 | 0.00 | 0.39 | 0.39 | 71 | 1010.3 |
| 20260505165359 | 69 | 136 | 5.0 | 8.0 | 0.00 | 0.39 | 0.39 | 72 | 1010.3 |
| 20260505165301 | 69 | 132 | 7.0 | 8.0 | 0.00 | 0.39 | 0.39 | 71 | 1010.2 |
| 20260505165217 | 70 | 137 | 5.0 | 6.0 | 0.00 | 0.39 | 0.39 | 71 | 1010.3 |
| 20260505164859 | 70 | 135 | 3.0 | 6.0 | 0.00 | 0.39 | 0.39 | 69 | 1010.3 |
| 20260505164804 | 70 | 194 | 3.0 | 6.0 | 0.00 | 0.39 | 0.39 | 69 | 1010.3 |
| 20260505164700 | 70 | 134 | 4.0 | 6.0 | 0.00 | 0.39 | 0.39 | 69 | 1010.2 |
| 20260505164504 | 70 | 128 | 2.0 | 6.0 | 0.00 | 0.39 | 0.39 | 67 | 1010.2 |
| 20260505164401 | 71 | 81 | 0.0 | 6.0 | 0.00 | 0.39 | 0.39 | 67 | 1010.2 |
| 20260505164300 | 71 | 102 | 2.0 | 6.0 | 0.00 | 0.39 | 0.39 | 67 | 1010.1 |
| 20260505164202 | 71 | 127 | 2.0 | 7.0 | 0.00 | 0.39 | 0.39 | 67 | 1010.1 |
| 20260505164002 | 71 | 173 | 2.0 | 7.0 | 0.00 | 0.39 | 0.39 | 67 | 1010.1 |
| 20260505163903 | 71 | 146 | 3.0 | 7.0 | 0.00 | 0.39 | 0.39 | 67 | 1010.1 |
| 20260505163800 | 71 | 143 | 1.0 | 7.0 | 0.00 | 0.39 | 0.39 | 68 | 1010.0 |
| 20260505163701 | 71 | 139 | 2.0 | 7.0 | 0.00 | 0.39 | 0.39 | 68 | 1010.0 |
| 20260505163604 | 71 | 136 | 4.0 | 7.0 | 0.00 | 0.39 | 0.39 | 67 | 1010.1 |
| 20260505163501 | 71 | 130 | 4.0 | 10.0 | 0.00 | 0.39 | 0.39 | 67 | 1010.1 |
| 20260505163401 | 71 | 157 | 3.0 | 10.0 | 0.00 | 0.39 | 0.39 | 67 | 1010.0 |
| 20260505163304 | 71 | 165 | 4.0 | 12.0 | 0.00 | 0.39 | 0.39 | 68 | 1010.0 |
| 20260505163159 | 71 | 149 | 5.0 | 12.0 | 0.00 | 0.39 | 0.39 | 67 | 1010.1 |
| 20260505163100 | 71 | 132 | 5.0 | 12.0 | 0.00 | 0.39 | 0.39 | 67 | 1010.1 |
| 20260505163007 | 71 | 136 | 4.0 | 12.0 | 0.00 | 0.39 | 0.39 | 69 | 1010.1 |
| 20260505162900 | 71 | 161 | 1.0 | 12.0 | 0.00 | 0.39 | 0.39 | 68 | 1010.1 |
| 20260505162800 | 71 | 156 | 2.0 | 12.0 | 0.00 | 0.39 | 0.39 | 68 | 1010.1 |
| 20260505162702 | 71 | 126 | 4.0 | 14.0 | 0.00 | 0.39 | 0.39 | 67 | 1010.0 |
| 20260505162559 | 71 | 181 | 2.0 | 15.0 | 0.00 | 0.39 | 0.39 | 68 | 1010.0 |
| 20260505162501 | 71 | 177 | 10.0 | 15.0 | 0.00 | 0.39 | 0.39 | 67 | 1010.0 |
| 20260505162402 | 71 | 170 | 5.0 | 15.0 | 0.00 | 0.39 | 0.39 | 68 | 1010.0 |
| 20260505162200 | 71 | 159 | 4.0 | 16.0 | 0.00 | 0.39 | 0.39 | 68 | 1010.0 |
| 20260505162103 | 71 | 173 | 6.0 | 16.0 | 0.00 | 0.39 | 0.39 | 67 | 1010.0 |
| 20260505162001 | 71 | 159 | 7.0 | 16.0 | 0.00 | 0.39 | 0.39 | 68 | 1010.0 |
| 20260505161900 | 71 | 149 | 3.0 | 16.0 | 0.00 | 0.39 | 0.39 | 68 | 1010.0 |
| 20260505161803 | 71 | 168 | 8.0 | 16.0 | 0.00 | 0.39 | 0.39 | 68 | 1010.0 |
| 20260505161359 | 71 | 203 | 5.0 | 16.0 | 0.00 | 0.39 | 0.39 | 68 | 1010.1 |
| 20260505161301 | 71 | 166 | 4.0 | 16.0 | 0.00 | 0.39 | 0.39 | 69 | 1010.1 |
| 20260505161204 | 71 | 174 | 16.0 | 16.0 | 0.00 | 0.39 | 0.39 | 69 | 1010.2 |
| 20260505161002 | 71 | 163 | 2.0 | 11.0 | 0.00 | 0.39 | 0.39 | 70 | 1010.2 |
| 20260505160801 | 71 | 140 | 5.0 | 14.0 | 0.00 | 0.39 | 0.39 | 69 | 1010.2 |
| 20260505160700 | 71 | 161 | 5.0 | 14.0 | 0.00 | 0.39 | 0.39 | 70 | 1010.2 |
| 20260505160603 | 70 | 156 | 7.0 | 14.0 | 0.00 | 0.39 | 0.39 | 70 | 1010.2 |
| 20260505160501 | 70 | 156 | 5.0 | 14.0 | 0.00 | 0.39 | 0.39 | 70 | 1010.2 |
| 20260505160400 | 70 | 151 | 4.0 | 14.0 | 0.00 | 0.39 | 0.39 | 70 | 1010.2 |
| 20260505160304 | 70 | 142 | 9.0 | 14.0 | 0.00 | 0.39 | 0.39 | 71 | 1010.2 |
| 20260505160201 | 70 | 109 | 9.0 | 14.0 | 0.00 | 0.39 | 0.39 | 70 | 1010.2 |
| 20260505160118 | 70 | 157 | 5.0 | 14.0 | 0.00 | 0.39 | 0.39 | 70 | 1010.2 |
| 20260505153302 | 70 | 163 | 4.0 | 15.0 | 0.00 | 0.39 | 0.39 | 71 | 1010.4 |
| 20260505153200 | 71 | 165 | 4.0 | 15.0 | 0.00 | 0.39 | 0.39 | 70 | 1010.4 |
| 20260505153100 | 71 | 156 | 4.0 | 15.0 | 0.00 | 0.39 | 0.39 | 70 | 1010.4 |
| 20260505153005 | 71 | 135 | 6.0 | 15.0 | 0.00 | 0.39 | 0.39 | 69 | 1010.4 |
| 20260505152900 | 72 | 136 | 6.0 | 15.0 | 0.00 | 0.39 | 0.39 | 69 | 1010.3 |
| 20260505152800 | 72 | 167 | 5.0 | 15.0 | 0.00 | 0.39 | 0.39 | 69 | 1010.4 |
| 20260505152704 | 72 | 155 | 5.0 | 15.0 | 0.00 | 0.39 | 0.39 | 68 | 1010.4 |
| 20260505152600 | 72 | 186 | 4.0 | 15.0 | 0.00 | 0.39 | 0.39 | 68 | 1010.4 |
| 20260505152500 | 72 | 176 | 4.0 | 15.0 | 0.00 | 0.39 | 0.39 | 68 | 1010.4 |
| 20260505152403 | 73 | 163 | 6.0 | 15.0 | 0.00 | 0.39 | 0.39 | 69 | 1010.4 |
| 20260505152300 | 73 | 178 | 6.0 | 14.0 | 0.00 | 0.39 | 0.39 | 69 | 1010.4 |
| 20260505152202 | 72 | 174 | 9.0 | 14.0 | 0.00 | 0.39 | 0.39 | 69 | 1010.4 |
| 20260505152103 | 72 | 172 | 5.0 | 14.0 | 0.00 | 0.39 | 0.39 | 70 | 1010.4 |
| 20260505152000 | 72 | 162 | 3.0 | 14.0 | 0.00 | 0.39 | 0.39 | 69 | 1010.4 |
| 20260505151900 | 72 | 146 | 5.0 | 14.0 | 0.00 | 0.39 | 0.39 | 69 | 1010.4 |
| 20260505151601 | 72 | 161 | 14.0 | 14.0 | 0.00 | 0.39 | 0.39 | 68 | 1010.4 |
| 20260505151504 | 72 | 161 | 5.0 | 13.0 | 0.00 | 0.39 | 0.39 | 69 | 1010.4 |
| 20260505151400 | 72 | 218 | 4.0 | 14.0 | 0.00 | 0.39 | 0.39 | 71 | 1010.4 |
| 20260505151203 | 72 | 163 | 7.0 | 12.0 | 0.00 | 0.39 | 0.39 | 72 | 1010.4 |
| 20260505151101 | 72 | 167 | 5.0 | 12.0 | 0.00 | 0.39 | 0.39 | 71 | 1010.4 |
| 20260505151002 | 72 | 157 | 3.0 | 12.0 | 0.00 | 0.39 | 0.39 | 71 | 1010.4 |
| 20260505150903 | 72 | 153 | 4.0 | 12.0 | 0.00 | 0.39 | 0.39 | 71 | 1010.4 |
| 20260505150800 | 72 | 155 | 8.0 | 12.0 | 0.00 | 0.39 | 0.39 | 71 | 1010.4 |
| 20260505150700 | 71 | 160 | 4.0 | 12.0 | 0.00 | 0.39 | 0.39 | 72 | 1010.4 |
| 20260505150603 | 71 | 134 | 9.0 | 12.0 | 0.00 | 0.39 | 0.39 | 72 | 1010.5 |
| 20260505150500 | 71 | 132 | 7.0 | 12.0 | 0.00 | 0.39 | 0.39 | 73 | 1010.5 |
| 20260505150400 | 71 | 160 | 3.0 | 12.0 | 0.00 | 0.39 | 0.39 | 72 | 1010.4 |
| 20260505150302 | 71 | 150 | 3.0 | 12.0 | 0.00 | 0.39 | 0.39 | 74 | 1010.5 |
| 20260505150159 | 71 | 152 | 7.0 | 12.0 | 0.00 | 0.39 | 0.39 | 74 | 1010.5 |
| 20260505140602 | 69 | 178 | 8.0 | 16.0 | 0.00 | 0.39 | 0.39 | 75 | 1011.1 |
| 20260505140503 | 69 | 186 | 13.0 | 16.0 | 0.00 | 0.39 | 0.39 | 75 | 1011.1 |
| 20260505140400 | 69 | 186 | 14.0 | 16.0 | 0.00 | 0.39 | 0.39 | 76 | 1011.1 |
| 20260505140305 | 69 | 170 | 12.0 | 13.0 | 0.00 | 0.39 | 0.39 | 77 | 1011.1 |
| 20260505140200 | 69 | 167 | 6.0 | 13.0 | 0.00 | 0.39 | 0.39 | 78 | 1011.1 |
| 20260505140122 | 69 | 179 | 12.0 | 13.0 | 0.00 | 0.39 | 0.39 | 80 | 1011.1 |
| 20260505130303 | 68 | 139 | 9.0 | 12.0 | 0.00 | 0.39 | 0.39 | 81 | 1011.5 |
| 20260505130159 | 68 | 150 | 6.0 | 12.0 | 0.00 | 0.39 | 0.39 | 80 | 1011.5 |
| 20260505125000 | 67 | 129 | 7.0 | 12.0 | 0.01 | 0.39 | 0.39 | 83 | 1011.6 |
| 20260505124902 | 67 | 143 | 11.0 | 11.0 | 0.01 | 0.39 | 0.39 | 83 | 1011.7 |
| 20260505124803 | 67 | 148 | 7.0 | 10.0 | 0.01 | 0.39 | 0.39 | 82 | 1011.7 |
| 20260505124700 | 67 | 130 | 7.0 | 10.0 | 0.01 | 0.39 | 0.39 | 82 | 1011.7 |
| 20260505124603 | 67 | 149 | 8.0 | 10.0 | 0.01 | 0.39 | 0.39 | 83 | 1011.7 |
| 20260505124505 | 67 | 119 | 7.0 | 10.0 | 0.01 | 0.39 | 0.39 | 83 | 1011.7 |
| 20260505124403 | 67 | 134 | 10.0 | 10.0 | 0.02 | 0.39 | 0.39 | 83 | 1011.7 |
| 20260505124302 | 67 | 138 | 6.0 | 9.0 | 0.02 | 0.39 | 0.39 | 82 | 1011.7 |
| 20260505124204 | 67 | 128 | 8.0 | 9.0 | 0.02 | 0.39 | 0.39 | 82 | 1011.7 |
| 20260505124100 | 67 | 102 | 4.0 | 9.0 | 0.02 | 0.39 | 0.39 | 82 | 1011.8 |
| 20260505124002 | 67 | 141 | 5.0 | 10.0 | 0.02 | 0.39 | 0.39 | 82 | 1011.8 |
| 20260505123904 | 67 | 127 | 9.0 | 11.0 | 0.02 | 0.39 | 0.39 | 82 | 1011.8 |
| 20260505123801 | 66 | 135 | 5.0 | 11.0 | 0.02 | 0.39 | 0.39 | 82 | 1011.9 |
| 20260505123703 | 66 | 159 | 3.0 | 11.0 | 0.02 | 0.39 | 0.39 | 81 | 1011.9 |
| 20260505123603 | 66 | 157 | 4.0 | 11.0 | 0.02 | 0.39 | 0.39 | 81 | 1011.9 |
| 20260505123459 | 66 | 201 | 4.0 | 11.0 | 0.02 | 0.39 | 0.39 | 81 | 1011.9 |
| 20260505123402 | 66 | 153 | 3.0 | 11.0 | 0.02 | 0.39 | 0.39 | 81 | 1012.0 |
| 20260505123302 | 66 | 149 | 3.0 | 11.0 | 0.02 | 0.39 | 0.39 | 81 | 1012.0 |
| 20260505123159 | 66 | 126 | 7.0 | 11.0 | 0.02 | 0.39 | 0.39 | 80 | 1011.9 |
| 20260505123105 | 66 | 133 | 8.0 | 11.0 | 0.02 | 0.39 | 0.39 | 80 | 1011.9 |
| 20260505122802 | 66 | 154 | 3.0 | 7.0 | 0.02 | 0.39 | 0.39 | 81 | 1011.9 |
| 20260505122703 | 66 | 153 | 6.0 | 8.0 | 0.02 | 0.39 | 0.39 | 80 | 1011.9 |
| 20260505122601 | 66 | 123 | 4.0 | 8.0 | 0.02 | 0.39 | 0.39 | 81 | 1011.9 |
| 20260505122502 | 66 | 126 | 4.0 | 8.0 | 0.02 | 0.39 | 0.39 | 80 | 1011.9 |
| 20260505122403 | 67 | 163 | 2.0 | 8.0 | 0.02 | 0.39 | 0.39 | 82 | 1011.9 |
| 20260505122259 | 66 | 172 | 3.0 | 8.0 | 0.02 | 0.39 | 0.39 | 82 | 1011.9 |
| 20260505122201 | 66 | 154 | 4.0 | 8.0 | 0.02 | 0.39 | 0.39 | 82 | 1011.9 |
| 20260505121903 | 66 | 175 | 3.0 | 8.0 | 0.02 | 0.39 | 0.39 | 82 | 1012.0 |
| 20260505121803 | 66 | 171 | 6.0 | 8.0 | 0.02 | 0.39 | 0.39 | 82 | 1012.0 |
| 20260505121702 | 66 | 196 | 4.0 | 7.0 | 0.02 | 0.39 | 0.39 | 82 | 1012.1 |
| 20260505121603 | 66 | 175 | 2.0 | 7.0 | 0.02 | 0.39 | 0.39 | 82 | 1012.0 |
| 20260505121504 | 66 | 174 | 4.0 | 6.0 | 0.02 | 0.39 | 0.39 | 82 | 1012.0 |
| 20260505121400 | 66 | 129 | 1.0 | 5.0 | 0.02 | 0.39 | 0.39 | 82 | 1012.0 |
| 20260505121202 | 66 | 188 | 3.0 | 5.0 | 0.02 | 0.39 | 0.39 | 83 | 1012.0 |
| 20260505120902 | 66 | 178 | 2.0 | 5.0 | 0.02 | 0.39 | 0.39 | 83 | 1011.9 |
| 20260505120800 | 66 | 196 | 2.0 | 5.0 | 0.02 | 0.39 | 0.39 | 83 | 1011.9 |
| 20260505120702 | 66 | 169 | 2.0 | 5.0 | 0.02 | 0.39 | 0.39 | 83 | 1011.9 |
| 20260505120603 | 66 | 175 | 4.0 | 6.0 | 0.02 | 0.39 | 0.39 | 82 | 1011.9 |
| 20260505120500 | 66 | 158 | 1.0 | 7.0 | 0.02 | 0.39 | 0.39 | 82 | 1011.9 |
| 20260505120402 | 66 | 173 | 2.0 | 7.0 | 0.02 | 0.39 | 0.39 | 82 | 1011.9 |
| 20260505120301 | 66 | 165 | 3.0 | 7.0 | 0.02 | 0.39 | 0.39 | 82 | 1011.9 |
| 20260505120200 | 66 | 173 | 4.0 | 8.0 | 0.02 | 0.39 | 0.39 | 82 | 1012.0 |
| 20260505120124 | 66 | 159 | 3.0 | 8.0 | 0.02 | 0.39 | 0.39 | 82 | 1011.9 |
| 20260505120009 | 66 | 136 | 2.0 | 8.0 | 0.02 | 0.39 | 0.39 | 81 | 1011.9 |
| 20260505115902 | 66 | 132 | 5.0 | 8.0 | 0.01 | 0.39 | 0.39 | 81 | 1011.9 |
| 20260505115705 | 66 | 136 | 2.0 | 8.0 | 0.01 | 0.39 | 0.39 | 81 | 1011.9 |
| 20260505115602 | 66 | 148 | 5.0 | 8.0 | 0.01 | 0.39 | 0.39 | 81 | 1011.9 |
| 20260505115505 | 66 | 135 | 6.0 | 8.0 | 0.01 | 0.39 | 0.39 | 81 | 1011.9 |
| 20260505115301 | 66 | 155 | 2.0 | 8.0 | 0.01 | 0.39 | 0.39 | 81 | 1011.9 |
| 20260505115200 | 66 | 130 | 6.0 | 8.0 | 0.01 | 0.39 | 0.39 | 81 | 1011.8 |
| 20260505115105 | 67 | 134 | 6.0 | 8.0 | 0.01 | 0.39 | 0.39 | 81 | 1011.8 |
| 20260505115003 | 67 | 137 | 6.0 | 8.0 | 0.01 | 0.39 | 0.39 | 81 | 1011.9 |
| 20260505114700 | 67 | 143 | 2.0 | 8.0 | 0.01 | 0.39 | 0.39 | 78 | 1011.9 |
| 20260505114601 | 67 | 143 | 3.0 | 8.0 | 0.01 | 0.39 | 0.39 | 78 | 1012.0 |
| 20260505114359 | 67 | 164 | 4.0 | 8.0 | 0.00 | 0.38 | 0.38 | 78 | 1011.9 |
| 20260505114259 | 67 | 178 | 5.0 | 8.0 | 0.00 | 0.38 | 0.38 | 76 | 1012.0 |
| 20260505114203 | 67 | 178 | 4.0 | 8.0 | 0.00 | 0.38 | 0.38 | 76 | 1012.0 |
| 20260505114059 | 67 | 190 | 4.0 | 8.0 | 0.00 | 0.38 | 0.38 | 76 | 1012.0 |
| 20260505114000 | 68 | 162 | 3.0 | 8.0 | 0.00 | 0.38 | 0.38 | 76 | 1012.0 |
| 20260505113906 | 68 | 182 | 6.0 | 8.0 | 0.00 | 0.38 | 0.38 | 75 | 1012.0 |
| 20260505113801 | 68 | 153 | 3.0 | 11.0 | 0.00 | 0.38 | 0.38 | 75 | 1012.0 |
| 20260505113659 | 68 | 171 | 3.0 | 11.0 | 0.00 | 0.38 | 0.38 | 75 | 1012.0 |
| 20260505113359 | 68 | 164 | 2.0 | 11.0 | 0.00 | 0.38 | 0.38 | 76 | 1012.0 |
| 20260505113302 | 68 | 164 | 2.0 | 11.0 | 0.00 | 0.38 | 0.38 | 76 | 1012.1 |
| 20260505113201 | 68 | 171 | 3.0 | 11.0 | 0.00 | 0.38 | 0.38 | 77 | 1012.1 |
| 20260505113005 | 68 | 169 | 3.0 | 11.0 | 0.00 | 0.38 | 0.38 | 77 | 1012.0 |
| 20260505112801 | 68 | 186 | 10.0 | 11.0 | 0.00 | 0.38 | 0.38 | 80 | 1012.1 |
| 20260505112702 | 68 | 148 | 3.0 | 11.0 | 0.00 | 0.38 | 0.38 | 79 | 1012.1 |
| 20260505112601 | 68 | 174 | 4.0 | 11.0 | 0.00 | 0.38 | 0.38 | 79 | 1012.1 |
| 20260505112501 | 68 | 150 | 4.0 | 9.0 | 0.00 | 0.38 | 0.38 | 80 | 1012.1 |
| 20260505112407 | 68 | 130 | 7.0 | 9.0 | 0.00 | 0.38 | 0.38 | 79 | 1012.1 |
| 20260505112300 | 68 | 131 | 7.0 | 9.0 | 0.00 | 0.38 | 0.38 | 78 | 1012.0 |
| 20260505112159 | 68 | 144 | 6.0 | 9.0 | 0.00 | 0.38 | 0.38 | 78 | 1012.0 |
| 20260505112102 | 68 | 146 | 3.0 | 9.0 | 0.00 | 0.38 | 0.38 | 79 | 1012.0 |
| 20260505112000 | 68 | 138 | 4.0 | 9.0 | 0.00 | 0.38 | 0.38 | 78 | 1012.0 |
| 20260505111802 | 68 | 153 | 4.0 | 9.0 | 0.00 | 0.38 | 0.38 | 77 | 1012.0 |
| 20260505111659 | 68 | 150 | 2.0 | 9.0 | 0.00 | 0.38 | 0.38 | 77 | 1012.0 |
| 20260505111559 | 68 | 128 | 8.0 | 9.0 | 0.00 | 0.38 | 0.38 | 77 | 1012.1 |
| 20260505111502 | 68 | 132 | 7.0 | 8.0 | 0.00 | 0.38 | 0.38 | 76 | 1012.1 |
| 20260505111359 | 68 | 146 | 6.0 | 8.0 | 0.00 | 0.38 | 0.38 | 76 | 1012.1 |
| 20260505111301 | 68 | 128 | 7.0 | 8.0 | 0.00 | 0.38 | 0.38 | 75 | 1012.0 |
| 20260505111204 | 68 | 158 | 5.0 | 8.0 | 0.00 | 0.38 | 0.38 | 75 | 1012.0 |
| 20260505111101 | 68 | 132 | 2.0 | 8.0 | 0.00 | 0.38 | 0.38 | 77 | 1012.1 |
| 20260505111002 | 68 | 128 | 5.0 | 8.0 | 0.00 | 0.38 | 0.38 | 77 | 1012.1 |
| 20260505110903 | 68 | 128 | 4.0 | 8.0 | 0.00 | 0.38 | 0.38 | 77 | 1012.0 |
| 20260505110800 | 68 | 134 | 5.0 | 9.0 | 0.00 | 0.38 | 0.38 | 78 | 1012.0 |
| 20260505110659 | 68 | 128 | 6.0 | 8.0 | 0.00 | 0.38 | 0.38 | 78 | 1012.0 |
| 20260505110605 | 68 | 138 | 4.0 | 8.0 | 0.00 | 0.38 | 0.38 | 79 | 1012.0 |
| 20260505110503 | 68 | 132 | 5.0 | 9.0 | 0.00 | 0.38 | 0.38 | 78 | 1012.0 |
| 20260505110402 | 68 | 129 | 4.0 | 9.0 | 0.00 | 0.38 | 0.38 | 77 | 1012.0 |
| 20260505110306 | 68 | 128 | 2.0 | 9.0 | 0.00 | 0.38 | 0.38 | 77 | 1012.0 |
| 20260505102200 | 66 | 74 | 4.0 | 5.0 | 0.00 | 0.38 | 0.38 | 80 | 1012.3 |
| 20260505102102 | 66 | 74 | 4.0 | 4.0 | 0.00 | 0.38 | 0.38 | 80 | 1012.4 |
| 20260505102001 | 66 | 74 | 2.0 | 4.0 | 0.00 | 0.38 | 0.38 | 80 | 1012.3 |
| 20260505101905 | 66 | 74 | 3.0 | 6.0 | 0.00 | 0.38 | 0.38 | 79 | 1012.3 |
| 20260505101803 | 66 | 74 | 1.0 | 6.0 | 0.00 | 0.38 | 0.38 | 79 | 1012.3 |
| 20260505101600 | 66 | 74 | 1.0 | 6.0 | 0.00 | 0.38 | 0.38 | 79 | 1012.3 |
| 20260505101503 | 66 | 74 | 1.0 | 6.0 | 0.00 | 0.38 | 0.38 | 79 | 1012.3 |
| 20260505101359 | 66 | 74 | 2.0 | 6.0 | 0.00 | 0.38 | 0.38 | 78 | 1012.3 |
| 20260505101259 | 66 | 74 | 2.0 | 6.0 | 0.00 | 0.38 | 0.38 | 78 | 1012.3 |
| 20260505101202 | 66 | 74 | 3.0 | 6.0 | 0.00 | 0.38 | 0.38 | 78 | 1012.3 |
| 20260505101059 | 66 | 35 | 0.0 | 9.0 | 0.00 | 0.38 | 0.38 | 78 | 1012.3 |
| 20260505100801 | 66 | 57 | 5.0 | 9.0 | 0.00 | 0.38 | 0.38 | 79 | 1012.3 |
| 20260505100700 | 66 | 82 | 7.0 | 10.0 | 0.00 | 0.38 | 0.38 | 78 | 1012.3 |
| 20260505100500 | 66 | 76 | 2.0 | 10.0 | 0.00 | 0.38 | 0.38 | 79 | 1012.3 |
| 20260505100359 | 66 | 76 | 2.0 | 10.0 | 0.00 | 0.38 | 0.38 | 79 | 1012.4 |
| 20260505100302 | 66 | 76 | 3.0 | 10.0 | 0.00 | 0.38 | 0.38 | 79 | 1012.4 |
| 20260505100201 | 66 | 85 | 6.0 | 10.0 | 0.00 | 0.38 | 0.38 | 78 | 1012.4 |
| 20260505100128 | 66 | 98 | 5.0 | 10.0 | 0.00 | 0.38 | 0.38 | 78 | 1012.4 |
| 20260505095900 | 67 | 74 | 3.0 | 10.0 | 0.00 | 0.38 | 0.38 | 78 | 1012.4 |
| 20260505095800 | 67 | 80 | 6.0 | 10.0 | 0.00 | 0.38 | 0.38 | 79 | 1012.4 |
| 20260505095707 | 67 | 72 | 9.0 | 10.0 | 0.00 | 0.38 | 0.38 | 78 | 1012.4 |
| 20260505095603 | 67 | 34 | 4.0 | 9.0 | 0.00 | 0.38 | 0.38 | 79 | 1012.3 |
| 20260505095502 | 67 | 42 | 4.0 | 9.0 | 0.00 | 0.38 | 0.38 | 82 | 1012.4 |
| 20260505095404 | 67 | 47 | 3.0 | 9.0 | 0.00 | 0.38 | 0.38 | 82 | 1012.3 |
| 20260505095304 | 67 | 59 | 5.0 | 9.0 | 0.00 | 0.38 | 0.38 | 82 | 1012.4 |
| 20260505095202 | 67 | 44 | 8.0 | 9.0 | 0.00 | 0.38 | 0.38 | 82 | 1012.4 |
| 20260505095105 | 66 | 43 | 3.0 | 8.0 | 0.00 | 0.38 | 0.38 | 82 | 1012.4 |
| 20260505095004 | 66 | 51 | 4.0 | 7.0 | 0.00 | 0.38 | 0.38 | 82 | 1012.3 |
| 20260505094901 | 66 | 103 | 5.0 | 8.0 | 0.00 | 0.38 | 0.38 | 81 | 1012.3 |
| 20260505094805 | 65 | 80 | 1.0 | 8.0 | 0.00 | 0.38 | 0.38 | 82 | 1012.3 |
| 20260505094600 | 65 | 50 | 3.0 | 6.0 | 0.00 | 0.38 | 0.38 | 83 | 1012.5 |
| 20260505094503 | 65 | 46 | 3.0 | 7.0 | 0.00 | 0.38 | 0.38 | 82 | 1012.5 |
| 20260505094403 | 64 | 80 | 3.0 | 7.0 | 0.00 | 0.38 | 0.38 | 81 | 1012.5 |
| 20260505094301 | 64 | 69 | 2.0 | 7.0 | 0.00 | 0.38 | 0.38 | 81 | 1012.5 |
| 20260505094203 | 64 | 98 | 3.0 | 7.0 | 0.00 | 0.38 | 0.38 | 80 | 1012.5 |
| 20260505094101 | 64 | 94 | 5.0 | 7.0 | 0.00 | 0.38 | 0.38 | 81 | 1012.4 |
| 20260505094001 | 64 | 60 | 2.0 | 8.0 | 0.00 | 0.38 | 0.38 | 80 | 1012.5 |
| 20260505093906 | 64 | 104 | 2.0 | 8.0 | 0.00 | 0.38 | 0.38 | 81 | 1012.5 |
| 20260505093800 | 64 | 104 | 2.0 | 8.0 | 0.00 | 0.38 | 0.38 | 81 | 1012.5 |
| 20260505093702 | 64 | 104 | 2.0 | 8.0 | 0.00 | 0.38 | 0.38 | 80 | 1012.5 |
| 20260505093603 | 64 | 113 | 3.0 | 8.0 | 0.00 | 0.38 | 0.38 | 80 | 1012.5 |
| 20260505093501 | 64 | 96 | 3.0 | 10.0 | 0.00 | 0.38 | 0.38 | 81 | 1012.5 |
| 20260505093302 | 64 | 132 | 4.0 | 10.0 | 0.00 | 0.38 | 0.38 | 80 | 1012.5 |
| 20260505093159 | 64 | 113 | 4.0 | 10.0 | 0.00 | 0.38 | 0.38 | 81 | 1012.5 |
| 20260505093100 | 65 | 112 | 5.0 | 10.0 | 0.00 | 0.38 | 0.38 | 82 | 1012.5 |
| 20260505093006 | 64 | 105 | 8.0 | 10.0 | 0.00 | 0.38 | 0.38 | 82 | 1012.5 |
| 20260505092859 | 65 | 144 | 1.0 | 10.0 | 0.00 | 0.38 | 0.38 | 83 | 1012.4 |
| 20260505092759 | 64 | 107 | 4.0 | 10.0 | 0.00 | 0.38 | 0.38 | 83 | 1012.4 |
| 20260505092702 | 64 | 99 | 5.0 | 10.0 | 0.00 | 0.38 | 0.38 | 84 | 1012.4 |
| 20260505092600 | 64 | 111 | 8.0 | 10.0 | 0.00 | 0.38 | 0.38 | 84 | 1012.3 |
| 20260505092459 | 64 | 116 | 4.0 | 9.0 | 0.00 | 0.38 | 0.38 | 84 | 1012.4 |
| 20260505092402 | 64 | 86 | 3.0 | 9.0 | 0.00 | 0.38 | 0.38 | 85 | 1012.4 |
| 20260505092259 | 64 | 96 | 8.0 | 9.0 | 0.00 | 0.38 | 0.38 | 85 | 1012.4 |
| 20260505092159 | 64 | 96 | 6.0 | 9.0 | 0.00 | 0.38 | 0.38 | 85 | 1012.4 |
| 20260505092103 | 64 | 76 | 8.0 | 9.0 | 0.00 | 0.38 | 0.38 | 86 | 1012.4 |
| 20260505092002 | 64 | 130 | 5.0 | 10.0 | 0.00 | 0.38 | 0.38 | 85 | 1012.4 |
| 20260505091802 | 64 | 91 | 7.0 | 10.0 | 0.00 | 0.38 | 0.38 | 86 | 1012.4 |
| 20260505091659 | 64 | 94 | 8.0 | 10.0 | 0.00 | 0.38 | 0.38 | 87 | 1012.4 |
| 20260505091600 | 64 | 66 | 7.0 | 10.0 | 0.00 | 0.38 | 0.38 | 87 | 1012.4 |
| 20260505091506 | 64 | 71 | 9.0 | 10.0 | 0.00 | 0.38 | 0.38 | 87 | 1012.4 |
| 20260505091400 | 64 | 117 | 5.0 | 10.0 | 0.00 | 0.38 | 0.38 | 87 | 1012.5 |
| 20260505091259 | 64 | 103 | 5.0 | 10.0 | 0.00 | 0.38 | 0.38 | 88 | 1012.4 |
| 20260505091203 | 64 | 90 | 3.0 | 10.0 | 0.00 | 0.38 | 0.38 | 88 | 1012.4 |
| 20260505091059 | 63 | 86 | 8.0 | 10.0 | 0.00 | 0.38 | 0.38 | 88 | 1012.4 |
| 20260505091000 | 63 | 90 | 5.0 | 10.0 | 0.00 | 0.38 | 0.38 | 87 | 1012.4 |
| 20260505090902 | 63 | 62 | 4.0 | 10.0 | 0.00 | 0.38 | 0.38 | 87 | 1012.4 |
| 20260505090759 | 63 | 90 | 6.0 | 10.0 | 0.00 | 0.38 | 0.38 | 87 | 1012.4 |
| 20260505090659 | 63 | 97 | 7.0 | 10.0 | 0.00 | 0.38 | 0.38 | 88 | 1012.4 |
| 20260505090602 | 63 | 115 | 8.0 | 10.0 | 0.00 | 0.38 | 0.38 | 89 | 1012.5 |
| 20260505090359 | 63 | 109 | 8.0 | 10.0 | 0.00 | 0.38 | 0.38 | 90 | 1012.4 |
| 20260505090302 | 63 | 55 | 7.0 | 10.0 | 0.00 | 0.38 | 0.38 | 90 | 1012.5 |
| 20260505090200 | 63 | 48 | 7.0 | 10.0 | 0.00 | 0.38 | 0.38 | 91 | 1012.5 |
| 20260505090101 | 63 | 72 | 7.0 | 10.0 | 0.00 | 0.38 | 0.38 | 91 | 1012.5 |
| 20260505090007 | 63 | 92 | 5.0 | 9.0 | 0.00 | 0.38 | 0.38 | 91 | 1012.5 |
| 20260505085702 | 62 | 69 | 7.0 | 9.0 | 0.00 | 0.38 | 0.38 | 91 | 1012.5 |
| 20260505085559 | 62 | 103 | 2.0 | 9.0 | 0.00 | 0.38 | 0.38 | 91 | 1012.6 |
| 20260505085402 | 62 | 101 | 5.0 | 10.0 | 0.00 | 0.38 | 0.38 | 91 | 1012.6 |
| 20260505085300 | 61 | 76 | 3.0 | 10.0 | 0.00 | 0.38 | 0.38 | 91 | 1012.6 |
| 20260505085103 | 61 | 63 | 4.0 | 10.0 | 0.00 | 0.38 | 0.38 | 91 | 1012.6 |
| 20260505085000 | 61 | 74 | 7.0 | 10.0 | 0.00 | 0.38 | 0.38 | 91 | 1012.5 |
| 20260505084859 | 61 | 71 | 7.0 | 10.0 | 0.00 | 0.38 | 0.38 | 91 | 1012.4 |
| 20260505084802 | 61 | 74 | 5.0 | 10.0 | 0.00 | 0.38 | 0.38 | 91 | 1012.4 |
| 20260505084659 | 61 | 78 | 9.0 | 10.0 | 0.00 | 0.38 | 0.38 | 92 | 1012.3 |
| 20260505084509 | 61 | 76 | 9.0 | 10.0 | 0.00 | 0.38 | 0.38 | 92 | 1012.3 |
| 20260505084402 | 61 | 69 | 10.0 | 10.0 | 0.00 | 0.38 | 0.38 | 92 | 1012.4 |
| 20260505084302 | 61 | 75 | 10.0 | 10.0 | 0.00 | 0.38 | 0.38 | 92 | 1012.5 |
| 20260505084202 | 61 | 46 | 5.0 | 9.0 | 0.00 | 0.38 | 0.38 | 92 | 1012.5 |
| 20260505084059 | 61 | 93 | 5.0 | 9.0 | 0.00 | 0.38 | 0.38 | 92 | 1012.5 |
| 20260505084002 | 61 | 71 | 7.0 | 9.0 | 0.00 | 0.38 | 0.38 | 92 | 1012.5 |
| 20260505083907 | 61 | 44 | 3.0 | 9.0 | 0.00 | 0.38 | 0.38 | 92 | 1012.5 |
| 20260505083703 | 61 | 70 | 4.0 | 9.0 | 0.00 | 0.38 | 0.38 | 93 | 1012.6 |
| 20260505083604 | 61 | 71 | 4.0 | 10.0 | 0.00 | 0.38 | 0.38 | 93 | 1012.6 |
| 20260505083501 | 61 | 90 | 6.0 | 10.0 | 0.00 | 0.38 | 0.38 | 93 | 1012.6 |
| 20260505083400 | 61 | 67 | 9.0 | 10.0 | 0.00 | 0.38 | 0.38 | 93 | 1012.5 |
| 20260505083304 | 61 | 93 | 7.0 | 10.0 | 0.00 | 0.38 | 0.38 | 93 | 1012.5 |
| 20260505083100 | 61 | 87 | 6.0 | 10.0 | 0.00 | 0.38 | 0.38 | 93 | 1012.5 |
| 20260505083006 | 61 | 71 | 2.0 | 10.0 | 0.00 | 0.38 | 0.38 | 94 | 1012.5 |
| 20260505082859 | 61 | 102 | 7.0 | 10.0 | 0.00 | 0.38 | 0.38 | 94 | 1012.5 |
| 20260505082706 | 60 | 77 | 9.0 | 10.0 | 0.00 | 0.38 | 0.38 | 94 | 1012.5 |
| 20260505082600 | 60 | 91 | 3.0 | 10.0 | 0.00 | 0.38 | 0.38 | 94 | 1012.5 |
| 20260505082404 | 60 | 66 | 8.0 | 10.0 | 0.00 | 0.38 | 0.38 | 95 | 1012.5 |
| 20260505082301 | 60 | 63 | 7.0 | 8.0 | 0.00 | 0.38 | 0.38 | 94 | 1012.5 |
| 20260505082159 | 59 | 77 | 7.0 | 8.0 | 0.00 | 0.38 | 0.38 | 94 | 1012.5 |
| 20260505082103 | 59 | 67 | 7.0 | 8.0 | 0.00 | 0.38 | 0.38 | 94 | 1012.5 |
| 20260505082002 | 59 | 74 | 4.0 | 8.0 | 0.00 | 0.38 | 0.38 | 94 | 1012.5 |
| 20260505081859 | 59 | 90 | 5.0 | 8.0 | 0.00 | 0.38 | 0.38 | 94 | 1012.6 |
| 20260505081802 | 59 | 113 | 4.0 | 8.0 | 0.00 | 0.38 | 0.38 | 94 | 1012.5 |
| 20260505081659 | 59 | 108 | 5.0 | 8.0 | 0.00 | 0.38 | 0.38 | 94 | 1012.5 |
| 20260505081602 | 59 | 92 | 5.0 | 8.0 | 0.00 | 0.38 | 0.38 | 94 | 1012.5 |
| 20260505081501 | 59 | 92 | 7.0 | 10.0 | 0.00 | 0.38 | 0.38 | 94 | 1012.5 |
| 20260505081200 | 59 | 96 | 6.0 | 10.0 | 0.00 | 0.38 | 0.38 | 94 | 1012.5 |
| 20260505081106 | 59 | 90 | 5.0 | 10.0 | 0.00 | 0.38 | 0.38 | 95 | 1012.5 |
| 20260505080900 | 59 | 57 | 3.0 | 10.0 | 0.00 | 0.38 | 0.38 | 95 | 1012.4 |
| 20260505080802 | 59 | 120 | 2.0 | 10.0 | 0.00 | 0.38 | 0.38 | 95 | 1012.4 |
| 20260505080700 | 58 | 112 | 8.0 | 10.0 | 0.00 | 0.38 | 0.38 | 94 | 1012.4 |
| 20260505080601 | 58 | 101 | 5.0 | 10.0 | 0.00 | 0.38 | 0.38 | 94 | 1012.4 |
| 20260505080503 | 58 | 101 | 6.0 | 9.0 | 0.00 | 0.38 | 0.38 | 94 | 1012.4 |
| 20260505080400 | 58 | 96 | 7.0 | 9.0 | 0.00 | 0.38 | 0.38 | 94 | 1012.3 |
| 20260505080301 | 58 | 107 | 7.0 | 9.0 | 0.00 | 0.38 | 0.38 | 94 | 1012.4 |
| 20260505080202 | 58 | 117 | 5.0 | 9.0 | 0.00 | 0.38 | 0.38 | 94 | 1012.4 |
| 20260505080119 | 58 | 92 | 6.0 | 8.0 | 0.00 | 0.38 | 0.38 | 94 | 1012.4 |
| 20260505080005 | 58 | 124 | 4.0 | 8.0 | 0.00 | 0.38 | 0.38 | 94 | 1012.4 |
| 20260505075906 | 58 | 129 | 4.0 | 8.0 | 0.00 | 0.38 | 0.38 | 94 | 1012.4 |
| 20260505075700 | 58 | 136 | 4.0 | 8.0 | 0.00 | 0.38 | 0.38 | 94 | 1012.4 |
| 20260505075603 | 58 | 131 | 5.0 | 8.0 | 0.01 | 0.38 | 0.38 | 94 | 1012.5 |
| 20260505075501 | 58 | 130 | 4.0 | 8.0 | 0.01 | 0.38 | 0.38 | 94 | 1012.4 |
| 20260505075304 | 58 | 115 | 7.0 | 8.0 | 0.01 | 0.38 | 0.38 | 94 | 1012.5 |
| 20260505075200 | 58 | 113 | 5.0 | 7.0 | 0.01 | 0.38 | 0.38 | 94 | 1012.6 |
| 20260505075104 | 58 | 112 | 7.0 | 7.0 | 0.01 | 0.38 | 0.38 | 94 | 1012.5 |
| 20260505075005 | 58 | 104 | 3.0 | 6.0 | 0.01 | 0.38 | 0.38 | 94 | 1012.5 |
| 20260505074900 | 58 | 113 | 4.0 | 8.0 | 0.02 | 0.38 | 0.38 | 94 | 1012.5 |
| 20260505074800 | 57 | 82 | 3.0 | 8.0 | 0.02 | 0.38 | 0.38 | 94 | 1012.6 |
| 20260505074600 | 57 | 114 | 2.0 | 8.0 | 0.03 | 0.38 | 0.38 | 94 | 1012.5 |
| 20260505074500 | 58 | 89 | 3.0 | 8.0 | 0.04 | 0.38 | 0.38 | 94 | 1012.6 |
| 20260505074402 | 57 | 96 | 5.0 | 8.0 | 0.04 | 0.38 | 0.38 | 94 | 1012.5 |
| 20260505074300 | 57 | 125 | 2.0 | 8.0 | 0.05 | 0.38 | 0.38 | 94 | 1012.6 |
| 20260505074200 | 58 | 121 | 3.0 | 8.0 | 0.06 | 0.38 | 0.38 | 94 | 1012.5 |
| 20260505074103 | 58 | 113 | 3.0 | 8.0 | 0.07 | 0.38 | 0.38 | 94 | 1012.5 |
| 20260505074001 | 58 | 88 | 5.0 | 8.0 | 0.08 | 0.38 | 0.38 | 94 | 1012.5 |
| 20260505073900 | 57 | 118 | 7.0 | 8.0 | 0.09 | 0.38 | 0.38 | 94 | 1012.5 |
| 20260505073802 | 57 | 122 | 3.0 | 8.0 | 0.12 | 0.38 | 0.38 | 94 | 1012.5 |
| 20260505073701 | 57 | 93 | 5.0 | 8.0 | 0.13 | 0.38 | 0.38 | 94 | 1012.5 |
| 20260505073601 | 57 | 119 | 4.0 | 8.0 | 0.14 | 0.38 | 0.38 | 94 | 1012.4 |
| 20260505073503 | 57 | 123 | 4.0 | 8.0 | 0.15 | 0.38 | 0.38 | 94 | 1012.4 |
| 20260505073401 | 57 | 130 | 4.0 | 6.0 | 0.16 | 0.38 | 0.38 | 94 | 1012.4 |
| 20260505073300 | 57 | 109 | 4.0 | 6.0 | 0.17 | 0.38 | 0.38 | 94 | 1012.3 |
| 20260505073206 | 57 | 128 | 5.0 | 6.0 | 0.17 | 0.38 | 0.38 | 94 | 1012.3 |
| 20260505073101 | 57 | 130 | 4.0 | 6.0 | 0.18 | 0.38 | 0.38 | 94 | 1012.4 |
| 20260505072905 | 57 | 108 | 3.0 | 5.0 | 0.19 | 0.38 | 0.38 | 94 | 1012.4 |
| 20260505072800 | 57 | 96 | 3.0 | 5.0 | 0.21 | 0.38 | 0.38 | 94 | 1012.4 |
| 20260505072700 | 57 | 104 | 3.0 | 6.0 | 0.22 | 0.38 | 0.38 | 94 | 1012.4 |
| 20260505072604 | 57 | 97 | 5.0 | 6.0 | 0.22 | 0.38 | 0.38 | 94 | 1012.4 |
| 20260505072501 | 56 | 104 | 3.0 | 6.0 | 0.23 | 0.38 | 0.38 | 94 | 1012.5 |
| 20260505072402 | 56 | 94 | 5.0 | 5.0 | 0.23 | 0.38 | 0.38 | 94 | 1012.5 |
| 20260505072305 | 56 | 117 | 2.0 | 5.0 | 0.23 | 0.38 | 0.38 | 94 | 1012.5 |
| 20260505072201 | 56 | 95 | 3.0 | 5.0 | 0.24 | 0.38 | 0.38 | 94 | 1012.5 |
| 20260505072102 | 56 | 75 | 2.0 | 5.0 | 0.24 | 0.38 | 0.38 | 94 | 1012.5 |
| 20260505072005 | 56 | 75 | 4.0 | 5.0 | 0.24 | 0.38 | 0.38 | 93 | 1012.5 |
| 20260505071903 | 56 | 74 | 4.0 | 6.0 | 0.25 | 0.38 | 0.38 | 93 | 1012.6 |
| 20260505071801 | 56 | 78 | 1.0 | 6.0 | 0.26 | 0.38 | 0.38 | 93 | 1012.6 |
| 20260505071705 | 56 | 78 | 2.0 | 6.0 | 0.26 | 0.38 | 0.38 | 93 | 1012.6 |
| 20260505071601 | 56 | 92 | 2.0 | 6.0 | 0.27 | 0.38 | 0.38 | 93 | 1012.7 |
| 20260505071500 | 56 | 92 | 1.0 | 6.0 | 0.28 | 0.38 | 0.38 | 93 | 1012.7 |
| 20260505071300 | 56 | 92 | 1.0 | 6.0 | 0.28 | 0.38 | 0.38 | 93 | 1012.8 |
| 20260505071203 | 56 | 92 | 2.0 | 6.0 | 0.28 | 0.38 | 0.38 | 93 | 1012.8 |
| 20260505071104 | 56 | 79 | 5.0 | 6.0 | 0.29 | 0.38 | 0.38 | 93 | 1012.7 |
| 20260505071002 | 56 | 101 | 3.0 | 6.0 | 0.29 | 0.38 | 0.38 | 93 | 1012.8 |
| 20260505070901 | 56 | 103 | 4.0 | 5.0 | 0.29 | 0.38 | 0.38 | 93 | 1012.8 |
| 20260505070806 | 56 | 119 | 3.0 | 5.0 | 0.29 | 0.38 | 0.38 | 93 | 1012.8 |
| 20260505070704 | 56 | 118 | 3.0 | 5.0 | 0.30 | 0.38 | 0.38 | 93 | 1013.0 |
| 20260505070601 | 56 | 130 | 3.0 | 5.0 | 0.31 | 0.38 | 0.38 | 93 | 1013.0 |
| 20260505070503 | 56 | 244 | 1.0 | 5.0 | 0.31 | 0.38 | 0.38 | 93 | 1013.0 |
| 20260505070400 | 56 | 265 | 0.0 | 5.0 | 0.31 | 0.38 | 0.38 | 93 | 1013.0 |
| 20260505070259 | 56 | 265 | 0.0 | 5.0 | 0.31 | 0.38 | 0.38 | 92 | 1013.0 |
| 20260505070203 | 56 | 265 | 2.0 | 5.0 | 0.31 | 0.38 | 0.38 | 92 | 1013.0 |
| 20260505070005 | 56 | 263 | 3.0 | 5.0 | 0.31 | 0.38 | 0.38 | 92 | 1013.1 |
| 20260505065903 | 56 | 265 | 3.0 | 5.0 | 0.31 | 0.38 | 0.38 | 92 | 1013.1 |
| 20260505065800 | 56 | 260 | 3.0 | 5.0 | 0.31 | 0.38 | 0.38 | 92 | 1013.0 |
| 20260505065700 | 56 | 259 | 5.0 | 5.0 | 0.31 | 0.38 | 0.38 | 92 | 1013.0 |
| 20260505065603 | 56 | 269 | 2.0 | 5.0 | 0.31 | 0.37 | 0.37 | 92 | 1013.1 |
| 20260505065500 | 56 | 267 | 2.0 | 4.0 | 0.31 | 0.37 | 0.37 | 92 | 1013.1 |
| 20260505065400 | 56 | 265 | 2.0 | 4.0 | 0.31 | 0.37 | 0.37 | 92 | 1013.1 |
| 20260505065303 | 56 | 258 | 3.0 | 4.0 | 0.31 | 0.37 | 0.37 | 92 | 1013.1 |
| 20260505065200 | 56 | 257 | 2.0 | 4.0 | 0.31 | 0.37 | 0.37 | 92 | 1013.1 |
| 20260505065100 | 56 | 243 | 3.0 | 4.0 | 0.31 | 0.37 | 0.37 | 92 | 1013.1 |
| 20260505065005 | 56 | 264 | 1.0 | 4.0 | 0.31 | 0.36 | 0.36 | 92 | 1013.1 |
| 20260505064800 | 56 | 248 | 2.0 | 4.0 | 0.31 | 0.35 | 0.35 | 92 | 1013.2 |
| 20260505064703 | 56 | 248 | 3.0 | 4.0 | 0.30 | 0.35 | 0.35 | 92 | 1013.2 |
| 20260505064500 | 56 | 248 | 2.0 | 3.0 | 0.29 | 0.34 | 0.34 | 91 | 1013.1 |
| 20260505064301 | 56 | 219 | 2.0 | 3.0 | 0.29 | 0.33 | 0.33 | 91 | 1013.1 |
| 20260505064159 | 56 | 188 | 2.0 | 3.0 | 0.28 | 0.32 | 0.32 | 91 | 1013.0 |
| 20260505064103 | 56 | 188 | 1.0 | 3.0 | 0.27 | 0.31 | 0.31 | 91 | 1013.0 |
| 20260505064003 | 56 | 188 | 1.0 | 3.0 | 0.26 | 0.30 | 0.30 | 91 | 1012.9 |
| 20260505063900 | 56 | 188 | 1.0 | 3.0 | 0.24 | 0.28 | 0.28 | 91 | 1012.9 |
| 20260505063601 | 56 | 188 | 3.0 | 3.0 | 0.20 | 0.24 | 0.24 | 91 | 1012.9 |
| 20260505063509 | 56 | 188 | 2.0 | 3.0 | 0.20 | 0.23 | 0.23 | 91 | 1012.9 |
| 20260505063300 | 56 | 188 | 2.0 | 3.0 | 0.18 | 0.21 | 0.21 | 91 | 1012.8 |
| 20260505063202 | 56 | 188 | 1.0 | 2.0 | 0.17 | 0.20 | 0.20 | 91 | 1012.8 |
| 20260505063100 | 56 | 188 | 1.0 | 3.0 | 0.17 | 0.20 | 0.20 | 91 | 1012.7 |
| 20260505063000 | 56 | 188 | 1.0 | 3.0 | 0.16 | 0.19 | 0.19 | 91 | 1012.7 |
| 20260505062759 | 56 | 188 | 1.0 | 4.0 | 0.13 | 0.17 | 0.17 | 91 | 1012.8 |
| 20260505062659 | 56 | 189 | 1.0 | 4.0 | 0.13 | 0.16 | 0.16 | 90 | 1012.8 |
| 20260505062605 | 56 | 197 | 1.0 | 4.0 | 0.12 | 0.15 | 0.15 | 90 | 1012.8 |
| 20260505062500 | 56 | 197 | 0.0 | 4.0 | 0.12 | 0.15 | 0.15 | 90 | 1012.8 |
| 20260505062400 | 56 | 197 | 0.0 | 4.0 | 0.12 | 0.15 | 0.15 | 90 | 1012.9 |
| 20260505062304 | 57 | 197 | 0.0 | 4.0 | 0.11 | 0.14 | 0.14 | 90 | 1012.9 |
| 20260505062200 | 57 | 197 | 2.0 | 4.0 | 0.10 | 0.13 | 0.13 | 90 | 1013.0 |
| 20260505062059 | 57 | 197 | 3.0 | 5.0 | 0.10 | 0.13 | 0.13 | 90 | 1013.0 |
| 20260505062003 | 57 | 197 | 1.0 | 5.0 | 0.09 | 0.13 | 0.13 | 90 | 1013.0 |
| 20260505061900 | 57 | 197 | 2.0 | 5.0 | 0.09 | 0.13 | 0.13 | 90 | 1013.0 |
| 20260505061800 | 57 | 191 | 2.0 | 6.0 | 0.09 | 0.12 | 0.12 | 90 | 1013.0 |
| 20260505061703 | 57 | 191 | 2.0 | 6.0 | 0.09 | 0.12 | 0.12 | 90 | 1013.0 |
| 20260505061559 | 57 | 191 | 1.0 | 6.0 | 0.08 | 0.11 | 0.11 | 90 | 1012.9 |
| 20260505061500 | 57 | 191 | 1.0 | 6.0 | 0.07 | 0.10 | 0.10 | 90 | 1012.9 |
| 20260505061300 | 57 | 191 | 2.0 | 6.0 | 0.06 | 0.09 | 0.09 | 89 | 1012.9 |
| 20260505061159 | 57 | 191 | 3.0 | 6.0 | 0.06 | 0.09 | 0.09 | 89 | 1012.8 |
| 20260505061103 | 57 | 191 | 4.0 | 6.0 | 0.06 | 0.09 | 0.09 | 89 | 1012.8 |
| 20260505061001 | 57 | 193 | 2.0 | 6.0 | 0.06 | 0.09 | 0.09 | 89 | 1012.7 |
| 20260505060900 | 57 | 192 | 5.0 | 6.0 | 0.06 | 0.09 | 0.09 | 89 | 1012.7 |
| 20260505060803 | 57 | 182 | 5.0 | 5.0 | 0.05 | 0.08 | 0.08 | 89 | 1012.7 |
| 20260505060700 | 57 | 174 | 2.0 | 3.0 | 0.05 | 0.08 | 0.08 | 89 | 1012.7 |
| 20260505060604 | 57 | 174 | 2.0 | 3.0 | 0.04 | 0.07 | 0.07 | 89 | 1012.6 |
| 20260505060506 | 57 | 174 | 2.0 | 4.0 | 0.04 | 0.07 | 0.07 | 89 | 1012.6 |
| 20260505060403 | 57 | 174 | 3.0 | 4.0 | 0.04 | 0.07 | 0.07 | 89 | 1012.6 |
| 20260505060302 | 57 | 174 | 0.0 | 5.0 | 0.04 | 0.07 | 0.07 | 89 | 1012.6 |
| 20260505060202 | 57 | 174 | 0.0 | 5.0 | 0.03 | 0.06 | 0.06 | 89 | 1012.5 |
| 20260505060119 | 57 | 174 | 0.0 | 5.0 | 0.03 | 0.06 | 0.06 | 89 | 1012.6 |
| 20260505060006 | 57 | 207 | 1.0 | 5.0 | 0.03 | 0.06 | 0.06 | 89 | 1012.6 |
| 20260505055904 | 57 | 207 | 2.0 | 5.0 | 0.03 | 0.06 | 0.06 | 89 | 1012.6 |
| 20260505055800 | 57 | 207 | 0.0 | 5.0 | 0.03 | 0.06 | 0.06 | 89 | 1012.6 |
| 20260505055700 | 57 | 207 | 3.0 | 5.0 | 0.03 | 0.06 | 0.06 | 89 | 1012.6 |
| 20260505055605 | 57 | 207 | 2.0 | 5.0 | 0.03 | 0.06 | 0.06 | 89 | 1012.6 |
| 20260505055401 | 57 | 207 | 4.0 | 5.0 | 0.03 | 0.06 | 0.06 | 89 | 1012.6 |
| 20260505055305 | 57 | 211 | 4.0 | 6.0 | 0.03 | 0.06 | 0.06 | 89 | 1012.6 |
| 20260505055100 | 57 | 204 | 3.0 | 6.0 | 0.02 | 0.06 | 0.06 | 89 | 1012.4 |
| 20260505055004 | 57 | 190 | 3.0 | 6.0 | 0.02 | 0.06 | 0.06 | 89 | 1012.4 |
| 20260505054901 | 57 | 190 | 2.0 | 6.0 | 0.02 | 0.06 | 0.06 | 89 | 1012.4 |
| 20260505054759 | 57 | 190 | 3.0 | 6.0 | 0.02 | 0.05 | 0.05 | 89 | 1012.4 |
| 20260505054702 | 57 | 190 | 2.0 | 6.0 | 0.02 | 0.05 | 0.05 | 89 | 1012.4 |
| 20260505054500 | 57 | 190 | 2.0 | 6.0 | 0.02 | 0.05 | 0.05 | 89 | 1012.4 |
| 20260505054403 | 57 | 190 | 4.0 | 6.0 | 0.01 | 0.04 | 0.04 | 89 | 1012.4 |
| 20260505054300 | 57 | 167 | 2.0 | 6.0 | 0.01 | 0.04 | 0.04 | 89 | 1012.4 |
| 20260505054200 | 57 | 202 | 2.0 | 6.0 | 0.01 | 0.04 | 0.04 | 89 | 1012.4 |
| 20260505054102 | 57 | 201 | 3.0 | 6.0 | 0.01 | 0.04 | 0.04 | 89 | 1012.4 |
| 20260505054000 | 57 | 194 | 4.0 | 6.0 | 0.01 | 0.04 | 0.04 | 89 | 1012.4 |
| 20260505053900 | 57 | 211 | 2.0 | 3.0 | 0.01 | 0.04 | 0.04 | 89 | 1012.3 |
| 20260505053802 | 57 | 211 | 2.0 | 3.0 | 0.01 | 0.04 | 0.04 | 89 | 1012.4 |
| 20260505053700 | 57 | 211 | 1.0 | 4.0 | 0.01 | 0.04 | 0.04 | 89 | 1012.4 |
| 20260505053559 | 57 | 210 | 2.0 | 4.0 | 0.00 | 0.03 | 0.03 | 89 | 1012.4 |
| 20260505053502 | 57 | 210 | 2.0 | 4.0 | 0.00 | 0.03 | 0.03 | 89 | 1012.3 |